     2              OBSERVATION DATA    GPS                 RINEX VERSION / TYPE
teqc 2000Feb29 Duncan Agnew 20000707 21:03:37UTC            PGM / RUN BY / DATE
                                                            COMMENT
L2: 1 -> 1; 5 -> 5; 60 -> 9                                 COMMENT
L2: 1 -> 1; 5 -> 5; 60 -> 9                                 COMMENT
L2: 1 -> 1; 5 -> 5; 60 -> 9                                 COMMENT
L2: 1 -> 1; 5 -> 5; 60 -> 9                                 COMMENT
L2: 1 -> 1; 5 -> 5; 60 -> 9                                 COMMENT
Original Marker Name: 6494                                  COMMENT
Campaign Name: USMC MCAGCC                                  COMMENT
4-Character Station Name: DUMB                              COMMENT
6-Character Antenna Code: TRMSST                            COMMENT
Vertical Measurement Point: BGP                             COMMENT
Vertical Offset to Rinex Ref. Point: 0.0597                 COMMENT
Radial Measurement Point: NGP                               COMMENT
Radial Offset to Rinex Ref. Point: 0.2334                   COMMENT
Antenna Height from Field Measurement: 1.4900 m             COMMENT
Additional Antenna Identification Info.:                    COMMENT
Model 14532.00                                              COMMENT
Original XYZ: -2315085.6275 -4740820.6902 3573273.3929      COMMENT
New XYZ position is based on association with SCEC monument COMMENT
E1F2G9Y6+0011. Position of that monument is believed to be  COMMENT
valid to within 1 m horizontally; vertical accuracy         COMMENT
should be no worse than 3-times this value.                 COMMENT
                                                            COMMENT
Revised Rinex header created by UCSD GPS archive for        COMMENT
GSAC on 10-Aug-2000 (2000:223) 22:18:03 GMT                 COMMENT
For assistance contact dagnew@ucsd.edu                      COMMENT
or anderson@python.ucsd.edu                                 COMMENT
                                                            COMMENT
DUMBELL                                                     MARKER NAME
____0001                                                    MARKER NUMBER
-Unknown- 11TH ARTILLERY US MARINE CORPS                    OBSERVER / AGENCY
16494 TRIMBLE MSGR NP 7.57; SP 3.53                         REC # / TYPE / VERS
S/N UNKNOWN TR 4000SST L1/L2 GEO                            ANT # / TYPE
 -2315082.1099 -4740819.2141  3573270.8523                  APPROX POSITION XYZ
        1.4119        0.0000        0.0000                  ANTENNA: DELTA H/E/N
     1     1     0                                          WAVELENGTH FACT L1/2
     6    L1    L2    P1    P2    S1    S2                  # / TYPES OF OBSERV
     0                                                      INTERVAL
  1999     3     3     0    18   30.000000                  TIME OF FIRST OBS
  1999     3     3     1    30   15.000000                  TIME OF LAST OBS
                                                            END OF HEADER
 99  3  3  0 18 30.0000000  0  8G 4G 5G 6G 8G 9G10G24G30
    746386.03515    581599.81515  23679403.016    23679410.609           8.750
         7.250
    260447.94817    201916.71016  20364531.609    20364538.258          23.000
        18.250
   -195887.28115   -151690.35015  23356733.094    23356741.113          10.750
        10.000
    104522.62415     64635.77515  22732156.594    22732165.602          11.000
        10.750
    121539.59514     55539.71215  24515222.328    24515234.074           6.750
         7.000
    -19698.60916    -15350.02316  21627128.680    21627136.223          16.500
        18.500
    464667.73716    360145.65616  20841822.898    20841829.996          19.750
        20.000
   -159836.77916   -124547.83116  21481595.422    21481601.961          18.250
        18.000
 99  3  3  0 18 45.0000000  0  8G 4G 5G 6G 8G 9G10G24G30
    812030.384 5    632751.250 5  23691894.742    23691902.676           8.750
         7.500
    283996.086 7    220265.908 6  20369012.664    20369019.234          22.750
        18.000
   -211946.430 5   -164203.935 5  23353676.977    23353685.242          10.500
        10.000
    158830.218 5    106953.342 5  22742490.969    22742499.801          10.750
        10.750
    184505.783 4    104604.194 5  24527204.641    24527215.648           6.500
         6.500
    -29576.528 6    -23047.083 6  21625248.852    21625256.395          16.500
        18.500
    505035.468 6    391601.034 6  20849504.719    20849511.895          19.750
        20.250
   -174676.021 6   -136110.860 6  21478771.578    21478778.176          18.500
        18.000
 99  3  3  0 19  0.0000000  4  1
0.000                                                       COMMENT
 99  3  3  0 19  0.0000000  0  8G 4G 5G 6G 8G 9G10G24G30
    877749.679 5    683961.076 5  23704400.477    23704408.289           8.250
         7.250
    307740.823 7    238768.301 6  20373531.281    20373537.750          23.250
        18.250
   -227930.225 5   -176658.803 5  23350635.625    23350643.723          10.750
        10.500
    213291.470 5    149390.670 5  22752854.750    22752863.605          10.750
        11.000
    247527.030 4    153711.579 5  24539197.102    24539208.652           6.250
         6.500
    -39257.084 6    -30590.346 6  21623406.797    21623414.293          16.500
        18.500
    545552.635 6    423172.856 6  20857214.734    20857221.766          19.750
        20.250
   -189349.078 6   -147544.402 6  21475979.422    21475985.902          18.500
        17.750
 99  3  3  0 19 15.0000000  0  8G 4G 5G 6G 8G 9G10G24G30
    943539.168 5    735225.597 5  23716919.914    23716927.754           7.750
         8.000
    331681.268 7    257423.185 6  20378086.953    20378093.328          23.250
        18.500
   -243844.444 5   -189059.491 6  23347607.047    23347615.211          11.250
        12.000
    267897.122 5    191940.486 5  22763245.836    22763254.820          11.000
        11.250
    310597.917 2    202857.611 4  24551198.922    24551210.355           4.750
         3.750
    -48748.436 6    -37986.189 6  21621600.555    21621608.145          18.000
        19.250
    586216.010 6    454858.611 6  20864952.734    20864959.895          18.500
        21.000
   -203861.731 6   -158852.954 6  21473217.625    21473224.066          19.250
        19.250
 99  3  3  0 19 30.0000000  0  8G 4G 5G 6G 8G 9G10G24G30
   1009391.187 5    786538.874 5  23729451.313    23729459.199           7.500
         6.000
    355812.681 7    276226.883 6  20382679.125    20382685.352          23.750
        17.750
   -259695.925 5   -201411.242 5  23344590.719    23344598.742          10.500
        10.250
    322633.421 5    234592.129 5  22773661.758    22773670.699          10.500
        11.500
    373710.962 4    252036.539 5  24563208.992    24563220.152           6.750
         5.500
    -58060.622 6    -45242.407 6  21619828.375    21619835.848          17.250
        18.750
    627017.775 6    486652.190 6  20872717.234    20872724.297          19.500
        19.750
   -218221.566 6   -170042.387 6  21470485.078    21470491.641          19.250
        17.750
 99  3  3  0 19 45.0000000  0  8G 4G 5G 6G 8G 9G10G24G30
   1075303.589 4    837899.182 5  23741993.750    23742001.488           7.000
         5.500
    380136.132 7    295180.226 6  20387307.664    20387313.879          23.750
        17.500
   -275485.352 5   -213714.678 5  23341586.023    23341593.941          10.250
        10.250
    377494.865 5    277341.255 5  22784101.391    22784110.293           9.250
        10.750
    436864.994 4    301247.418 5  24575227.313    24575238.488           7.250
         5.750
    -67196.655 6    -52361.362 6  21618089.930    21618097.422          18.250
        19.250
    667953.186 6    518549.917 6  20880507.023    20880514.008          19.500
        19.500
   -232430.766 6   -181114.471 6  21467781.242    21467787.602          17.750
        18.000
 99  3  3  0 20  0.0000000  0  7G 4G 5G 6G 8G10G24G30
   1141270.844 4    889302.217 5  23754547.148    23754554.637           6.750
         5.750
    404645.051 7    314278.076 6  20391971.406    20391977.766          24.000
        17.500
   -291222.267 5   -225977.184 5  23338591.531    23338599.379          10.500
        10.500
    432471.749 5    320180.353 5  22794563.234    22794572.117           9.250
        10.750
    -76161.916 6    -59347.259 6  21616383.922    21616391.266          18.000
        19.250
    709013.761 6    550545.165 6  20888320.625    20888327.680          19.750
        19.750
   -246498.776 6   -192076.547 6  21465104.117    21465110.504          17.750
        17.750
 99  3  3  0 20 15.0000000  0  7G 4G 5G 6G 8G10G24G30
   1207293.382 4    940748.352 5  23767110.023    23767118.129           6.250
         6.250
    429338.854 7    333520.000 6  20396670.594    20396676.863          23.750
        18.000
   -306907.063 5   -238199.030 5  23335606.594    23335614.438          10.750
         9.250
    487565.587 5    363110.654 5  22805047.484    22805056.180          11.000
         9.750
    -84953.894 6    -66198.086 6  21614710.836    21614718.109          16.500
        17.750
    750196.564 7    582635.659 6  20896157.359    20896164.309          21.000
        21.000
   -260423.887 6   -202927.285 6  21462454.398    21462460.707          17.750
        17.000
 99  3  3  0 20 30.0000000  0  7G 4G 5G 6G 8G10G24G30
   1273364.123 5    992232.007 5  23779683.273    23779691.281           7.750
         6.750
    454206.820 7    352897.638 6  20401402.781    20401409.219          23.250
        18.000
   -322550.186 5   -250388.436 5  23332629.836    23332637.844          11.000
        10.500
    542769.802 5    406126.863 5  22815552.336    22815561.270          10.250
        10.500
    -93580.916 6    -72920.439 6  21613069.078    21613076.488          16.250
        18.500
    791493.823 6    614815.345 6  20904015.805    20904022.914          19.750
        20.250
   -274210.421 6   -213670.015 6  21459830.813    21459837.125          19.000
        18.250
 99  3  3  0 20 45.0000000  0  7G 4G 5G 6G 8G10G24G30
   1339484.593 5   1043754.435 5  23792265.414    23792273.355           7.500
         6.500
    479247.620 7    372409.950 6  20406167.898    20406174.324          23.000
        18.250
   -338156.781 5   -262549.391 5  23329659.805    23329667.855          11.000
        10.000
    598082.730 5    449227.818 5  22826078.070    22826087.070          10.250
        10.500
   -102047.782 6    -79517.965 6  21611457.844    21611465.434          16.500
        18.750
    832904.301 7    647083.251 6  20911895.984    20911903.047          20.000
        20.250
   -287859.494 6   -224305.645 6  21457233.422    21457239.875          19.250
        18.250
 99  3  3  0 21  0.0000000  4  1
1.490                                                       COMMENT
 99  3  3  0 21  0.0000000  0  7G 4G 5G 6G 8G10G24G30
   1405659.193 5   1095319.064 5  23804858.508    23804866.039           7.750
         6.750
    504468.172 7    392062.327 6  20410967.227    20410973.668          23.250
        18.000
   -353723.261 5   -274679.082 5  23326697.813    23326705.707          11.000
        10.250
    653508.490 5    492416.696 5  22836625.313    22836634.324          10.000
        10.500
   -110352.311 6    -85989.004 6  21609877.461    21609884.934          16.500
        18.750
    874431.448 6    679442.076 6  20919798.578    20919805.590          19.750
        20.250
   -301366.931 6   -234830.905 6  21454663.047    21454669.504          19.000
        18.250
 99  3  3  0 21 15.0000000  0  7G 4G 5G 6G 8G10G24G30
   1471873.481 4   1146914.592 5  23817457.813    23817466.449           6.750
         6.750
    529858.131 7    411846.703 6  20415798.766    20415805.180          23.000
        18.000
   -369262.375 5   -286787.443 5  23323740.578    23323748.801          10.750
        10.250
    709032.287 5    535681.955 5  22847191.141    22847199.922           9.750
        10.250
   -118507.419 6    -92343.600 6  21608325.586    21608333.293          16.250
        19.250
    916061.327 6    711880.939 6  20927720.336    20927727.355          19.750
        20.250
   -314742.643 6   -245253.525 6  21452117.813    21452124.145          19.250
        18.250
 99  3  3  0 21 30.0000000  0  7G 4G 5G 6G 8G10G24G30
   1538124.024 4   1198538.388 5  23830065.313    23830073.727           7.250
         7.000
    555414.418 7    431760.694 6  20420661.992    20420668.387          23.000
        18.000
   -384776.024 5   -298875.971 5  23320788.422    23320796.371          11.000
        10.500
    764651.366 5    579021.473 5  22857775.125    22857783.965          10.500
        10.500
   -126516.346 6    -98584.291 6  21606801.516    21606809.063          16.500
        18.750
    957789.633 6    744396.502 6  20935660.969    20935668.012          19.750
        20.250
   -327986.717 6   -255573.562 6  21449597.570    21449603.891          19.500
        18.500
 99  3  3  0 21 45.0000000  0  7G 4G 5G 6G 8G10G24G30
   1604412.382 4   1250191.642 5  23842679.656    23842687.672           7.250
         7.000
    581137.606 7    451804.736 6  20425556.922    20425563.242          23.250
        18.000
   -400264.197 5   -310944.638 5  23317841.016    23317848.980          11.000
        10.250
    820368.350 5    622437.285 5  22868377.805    22868386.629          10.500
        10.000
   -134375.997 6   -104708.663 6  21605305.875    21605313.477          16.250
        18.750
    999614.889 6    776987.609 6  20943620.016    20943627.035          19.750
        20.250
   -341097.903 6   -265790.048 6  21447102.430    21447108.766          19.500
        18.500
 99  3  3  0 22  0.0000000  0  7G 4G 5G 6G 8G10G24G30
   1670733.657 4   1301870.536 5  23855299.938    23855308.313           6.500
         7.000
    607022.436 7    471974.731 6  20430482.570    20430488.996          22.750
        18.000
   -415731.050 5   -322996.702 5  23314897.883    23314906.008          10.750
        10.000
    876178.599 5    665925.756 5  22878998.109    22879006.996          11.000
         9.750
   -142089.526 6   -110719.185 6  21603838.063    21603845.668          17.000
        19.750
   1041533.174 6    809651.207 6  20951596.828    20951603.918          19.750
        20.000
   -354080.699 6   -275906.494 6  21444632.109    21444638.328          19.750
        18.500
 99  3  3  0 22 15.0000000  0  7G 4G 5G 6G 8G10G24G30
   1737082.675 4   1353571.088 5  23867926.305    23867934.027           7.250
         6.500
    633064.120 7    492266.952 6  20435438.281    20435444.484          23.250
        17.750
   -431178.217 5   -335033.421 5  23311958.398    23311966.301          11.000
        10.250
    932079.505 5    709484.873 5  22889635.867    22889644.555          10.500
        10.000
   -149660.661 6   -116618.743 6  21602397.219    21602404.891          16.250
        19.250
   1083543.418 6    842386.461 6  20959591.172    20959598.086          19.750
        20.000
   -366935.513 6   -285923.222 6  21442185.789    21442192.191          19.500
        18.750
 99  3  3  0 22 30.0000000  0  7G 4G 5G 6G 8G10G24G30
   1803455.080 4   1405289.840 5  23880556.164    23880564.168           7.250
         6.750
    659262.249 7    512681.081 6  20440423.602    20440429.957          23.250
        17.750
   -446605.219 5   -347054.423 5  23309022.656    23309030.742          11.000
        10.000
    988068.944 5    753112.986 5  22900290.227    22900299.082          10.500
         9.750
   -157093.068 6   -122410.190 6  21600982.977    21600990.559          16.500
        19.250
   1125644.819 6    875192.751 6  20967602.711    20967609.855          19.500
        20.250
   -379660.739 6   -295838.961 6  21439764.211    21439770.477          19.750
        18.250
 99  3  3  0 22 45.0000000  0  7G 4G 5G 6G 8G10G24G30
   1869851.118 4   1457026.991 5  23893190.898    23893199.387           6.750
         7.250
    685620.257 7    533219.790 6  20445439.289    20445445.707          23.000
        18.500
   -462009.802 5   -359057.968 5  23306091.078    23306099.094          10.750
        10.250
   1044146.350 5    796809.645 5  22910961.508    22910970.332          10.500
         9.750
   -164386.175 6   -128093.106 6  21599595.102    21599602.707          16.500
        19.500
   1167839.586 6    908071.784 6  20975632.000    20975639.102          19.500
        20.500
   -392257.890 6   -305654.908 6  21437367.086    21437373.336          19.750
        18.500
 99  3  3  0 23  0.0000000  0  7G 4G 5G 6G 8G10G24G30
   1936264.334 4   1508777.542 5  23905829.094    23905837.223           7.250
         7.250
    712132.884 7    553878.978 6  20450484.555    20450490.945          23.000
        18.250
   -477392.692 5   -371044.600 5  23303163.586    23303171.555          10.750
        10.250
   1100307.691 5    840571.698 5  22921648.711    22921657.398          10.250
         9.750
   -171542.684 6   -133669.579 6  21598233.203    21598240.824          16.500
        19.250
   1210120.085 6    941017.628 6  20983677.836    20983685.035          19.250
        20.500
   -404732.565 6   -315375.417 6  21434993.234    21434999.496          19.750
        18.500
 99  3  3  0 23 15.0000000  0  7G 4G 5G 6G 8G10G24G30
   2002696.094 4   1560542.526 5  23918470.305    23918478.648           6.750
         7.250
    738802.574 7    574660.549 6  20455559.508    20455565.906          23.000
        18.250
   -492746.715 5   -383008.746 5  23300242.094    23300249.988          10.750
        10.500
   1156557.597 5    884402.763 5  22932352.648    22932361.566          10.500
         9.750
   -178556.897 6   -139135.166 6  21596898.453    21596906.035          16.500
        19.500
   1252491.220 6    974034.100 6  20991740.617    20991747.855          19.250
        20.250
   -417079.473 6   -324996.365 6  21432643.688    21432649.938          19.750
        18.500
 99  3  3  0 23 30.0000000  0  7G 4G 5G 6G 8G10G24G30
   2069142.796 4   1612319.195 5  23931115.406    23931123.070           7.250
         7.250
    765623.942 7    595560.324 6  20460663.508    20460669.758          22.750
        18.000
   -508076.870 5   -394954.262 5  23297324.859    23297332.770          10.750
        10.250
   1212891.187 5    928299.038 5  22943072.500    22943081.355          10.500
         9.750
   -185432.797 6   -144492.982 6  21595590.039    21595597.609          16.750
        19.500
   1294951.604 6   1007120.110 6  20999820.492    20999827.820          19.250
        20.500
   -429301.613 7   -334520.097 6  21430317.906    21430324.145          20.000
        18.500
 99  3  3  0 23 45.0000000  0  7G 4G 5G 6G 8G10G24G30
   2135606.234 4   1664108.876 5  23943762.555    23943770.598           6.750
         7.000
    792594.288 7    616576.175 6  20465795.742    20465802.117          22.750
        18.000
   -523385.227 5   -406882.816 5  23294411.422    23294419.438          10.750
        10.250
   1269309.891 5    972261.646 5  22953808.609    22953817.398          10.500
         9.750
   -192166.926 6   -149740.328 6  21594308.602    21594315.938          16.750
        19.500
   1337503.170 6   1040277.177 6  21007917.828    21007925.145          19.000
        20.500
   -441400.491 7   -343947.773 6  21428015.547    21428021.707          20.000
        18.750
 99  3  3  0 24  0.0000000  0  7G 4G 5G 6G 8G10G24G30
   2202084.931 4   1715910.438 5  23956413.148    23956421.457           6.750
         7.500
    819712.007 7    637706.869 6  20470956.008    20470962.508          22.750
        18.250
   -538670.787 5   -418793.606 5  23291503.086    23291510.836          11.000
        10.250
   1325815.903 5   1016292.277 5  22964561.617    22964570.496          10.500
         9.750
   -198755.200 6   -154874.020 6  21593054.844    21593062.324          16.750
        19.250
   1380148.560 6   1073507.348 6  21016032.945    21016040.180          19.250
        20.500
   -453373.574 6   -353277.435 6  21425737.133    21425743.453          19.750
        18.750
 99  3  3  0 24 15.0000000  0  7G 4G 5G 6G 8G10G24G30
   2268576.886 5   1767722.348 5  23969066.516    23969074.730           7.500
         7.750
    846972.680 7    658948.952 6  20476143.578    20476150.000          22.750
        18.000
   -553934.353 5   -430687.266 5  23288598.367    23288606.324          10.750
        10.250
   1382408.978 5   1060390.743 5  22975330.953    22975339.902          10.250
         9.750
   -205200.451 6   -159896.270 6  21591828.344    21591835.832          16.750
        19.500
   1422885.609 6   1106808.949 6  21024165.516    21024172.805          19.250
        20.500
   -465221.703 7   -362509.731 6  21423482.484    21423488.668          20.000
        18.750
 99  3  3  0 24 30.0000000  0  7G 4G 5G 6G 8G10G24G30
   2335078.996 5   1819542.156 5  23981721.625    23981729.547           7.750
         8.000
    874369.327 7    680296.989 6  20481356.984    20481363.434          22.750
        18.250
   -569184.526 5   -442570.478 5  23285696.344    23285704.223          11.000
        10.250
   1439083.610 5   1104552.774 5  22986115.813    22986124.602          10.000
         9.750
   -211510.384 6   -164813.068 6  21590627.570    21590635.031          17.000
        19.250
   1465707.546 6   1140176.693 6  21032314.266    21032321.586          19.250
        20.500
   -476951.657 7   -371649.931 6  21421250.148    21421256.277          20.250
        18.500
 99  3  3  0 24 45.0000000  0  7G 4G 5G 6G 8G10G24G30
   2401594.821 5   1871372.666 5  23994379.313    23994386.930           7.750
         7.750
    901901.695 7    701750.785 6  20486596.188    20486602.648          22.500
        18.250
   -584419.092 5   -454441.528 5  23282797.219    23282805.055          11.000
        10.000
   1495839.394 5   1148778.040 5  22996916.094    22996924.887          10.000
         9.500
   -217680.265 6   -169620.745 6  21589453.445    21589460.891          17.000
        19.500
   1508614.117 6   1173610.384 6  21040479.250    21040486.500          19.250
        20.250
   -488564.051 7   -380698.534 6  21419040.430    21419046.621          20.250
        18.750
 99  3  3  0 25  0.0000000  0  7G 4G 5G 6G 8G10G24G30
   2468124.156 4   1923213.671 5  24007038.953    24007046.801           7.250
         7.500
    929567.245 7    723308.350 6  20491860.695    20491867.223          22.500
        18.250
   -599637.171 5   -466299.732 5  23279901.133    23279908.949          11.000
        10.250
   1552676.784 5   1193066.881 5  23007732.227    23007740.750          10.250
         9.500
   -223709.198 6   -174318.588 6  21588306.047    21588313.488          17.000
        19.500
   1551604.105 6   1207109.071 6  21048659.914    21048667.141          19.500
        20.500
   -500059.317 7   -389655.869 6  21416853.031    21416859.117          20.000
        18.750
 99  3  3  0 25 15.0000000  0  7G 4G 5G 6G 8G10G24G30
   2534666.079 5   1975064.515 5  24019702.117    24019709.477           7.500
         7.500
    957366.451 7    744970.067 6  20497150.703    20497157.195          22.500
        18.250
   -614840.631 5   -478146.546 5  23277008.031    23277016.020          10.750
        10.250
   1609594.168 5   1237418.069 5  23018563.102    23018571.879          10.000
         9.500
   -229598.071 6   -178907.291 6  21587185.359    21587192.828          16.750
        19.500
   1594677.754 6   1240672.957 6  21056856.531    21056863.789          19.500
        20.500
   -511435.142 7   -398520.128 6  21414688.258    21414694.453          20.000
        18.750
 99  3  3  0 25 30.0000000  0  7G 4G 5G 6G 8G10G24G30
   2601223.091 5   2026927.117 5  24032367.430    24032375.121           7.750
         7.750
    985304.206 7    766739.747 6  20502467.164    20502473.672          22.750
        18.250
   -630030.555 5   -489982.810 5  23274117.602    23274125.512          11.000
        10.250
   1666590.875 5   1281831.061 5  23029408.875    23029417.848           9.750
         9.500
   -235345.523 6   -183385.799 6  21586091.664    21586099.047          17.000
        19.500
   1637838.660 6   1274304.833 6  21065069.813    21065076.898          19.750
        20.500
   -522689.025 7   -407289.379 6  21412546.633    21412552.895          20.000
        18.750
 99  3  3  0 25 45.0000000  0  7G 4G 5G 6G 8G10G24G30
   2667793.911 5   2078800.472 5  24045035.367    24045043.031           8.000
         7.750
   1013380.662 7    788617.501 6  20507809.883    20507816.313          22.750
        18.250
   -645206.240 5   -501807.984 5  23271229.602    23271237.414          11.000
        10.500
   1723663.669 5   1326303.346 5  23040269.680    23040278.391           9.500
         9.500
   -240952.313 6   -187754.705 6  21585024.688    21585032.125          17.000
        19.500
   1681085.149 6   1308003.394 6  21073299.445    21073306.656          19.750
        20.500
   -533822.548 7   -415964.834 6  21410428.070    21410434.262          20.000
        18.750
 99  3  3  0 26  0.0000000  0  7G 4G 5G 6G 8G10G24G30
   2734375.131 5   2130681.923 5  24057705.516    24057713.426           8.250
         8.000
   1041594.464 7    810602.282 6  20513178.859    20513185.344          22.750
        18.250
   -660366.070 5   -513620.797 5  23268344.859    23268352.727          11.000
        10.500
   1780811.547 5   1370834.140 5  23051144.469    23051153.426           9.500
         9.500
   -246421.537 6   -192016.411 6  21583984.023    21583991.383          17.000
        19.500
   1724411.285 6   1341764.022 6  21081544.211    21081551.395          19.750
        20.250
   -544838.618 7   -424548.767 6  21408331.734    21408337.879          20.000
        18.500
 99  3  3  0 26 15.0000000  0  7G 4G 5G 6G 8G10G24G30
   2800966.228 5   2182571.081 5  24070376.938    24070385.113           7.750
         8.000
   1069949.576 7    832697.176 6  20518574.523    20518580.980          22.750
        18.250
   -675506.040 5   -525418.133 5  23265463.883    23265471.504          11.000
        10.500
   1838031.333 5   1415420.963 5  23062033.016    23062041.707           9.500
         9.250
   -251755.875 6   -196173.012 6  21582969.031    21582976.230          17.000
        19.500
   1767815.395 7   1375585.406 6  21089803.734    21089810.902          20.000
        20.250
   -555737.174 6   -433041.129 6  21406257.773    21406263.863          19.750
        18.750
 99  3  3  0 26 30.0000000  0  7G 4G 5G 6G 8G10G24G30
   2867571.210 5   2234471.047 5  24083051.414    24083059.500           7.750
         7.750
   1098449.348 7    854904.789 6  20523997.977    20524004.363          22.750
        18.250
   -690624.115 5   -537198.404 5  23262586.945    23262594.734          11.000
        10.500
   1895322.102 5   1460063.096 5  23072935.297    23072944.035           9.250
         9.500
   -256956.535 6   -200225.453 6  21581979.203    21581986.527          17.250
        19.500
   1811298.259 7   1409468.157 6  21098078.250    21098085.422          20.000
        20.250
   -566517.316 6   -441441.227 6  21404206.281    21404212.387          19.750
        18.500
 99  3  3  0 26 45.0000000  0  7G 4G 5G 6G 8G10G24G30
   2934182.608 5   2286376.020 5  24095727.117    24095734.879           7.750
         7.250
   1127089.901 7    877222.108 6  20529448.102    20529454.602          22.750
        18.250
   -705722.634 5   -548963.441 5  23259713.695    23259721.453          11.000
        10.500
   1952677.760 5   1504755.786 5  23083849.344    23083858.426           9.250
         9.250
   -262026.533 6   -204176.080 6  21581014.469    21581021.715          17.500
        19.500
   1854856.023 7   1443409.277 6  21106367.188    21106374.285          20.250
        20.250
   -577182.527 6   -449751.764 6  21402176.813    21402182.996          19.750
        18.750
 99  3  3  0 27  0.0000000  0  7G 4G 5G 6G 8G10G24G30
   3000795.984 5   2338282.538 5  24108403.578    24108411.215           8.000
         7.500
   1155872.072 7    899649.770 6  20534925.148    20534931.656          22.750
        18.250
   -720800.318 5   -560712.247 5  23256844.422    23256852.348          11.000
        10.750
   2010098.319 5   1549499.060 5  23094776.133    23094785.277           9.000
         9.250
   -266965.889 6   -208024.906 6  21580074.555    21580081.855          17.500
        19.500
   1898489.161 7   1477409.124 6  21114670.063    21114677.082          20.250
        20.250
   -587730.307 6   -457970.800 6  21400169.664    21400175.762          19.750
        18.750
 99  3  3  0 27 15.0000000  0  7G 4G 5G 6G 8G10G24G30
   3067409.017 5   2390188.799 5  24121079.594    24121087.797           8.000
         8.000
   1184798.428 7    922189.788 6  20540429.703    20540436.090          23.000
        18.500
   -735860.989 5   -572447.793 5  23253978.680    23253986.445          11.250
        10.750
   2067582.696 5   1594292.045 5  23105715.117    23105724.355           9.000
         9.250
   -271776.157 6   -211773.146 6  21579159.078    21579166.332          17.500
        19.250
   1942198.216 7   1511468.127 6  21122987.672    21122994.656          20.250
        20.000
   -598159.307 6   -466097.279 6  21398185.023    21398191.148          19.750
        18.750
 99  3  3  0 27 30.0000000  0  7G 4G 5G 6G 8G10G24G30
   3134023.852 5   2442096.437 5  24133755.680    24133764.059           7.750
         8.000
   1213872.957 7    944845.268 6  20545962.461    20545968.777          23.000
        18.250
   -750903.792 5   -584169.407 5  23251116.031    23251123.813          11.250
        10.750
   2125131.373 5   1639135.146 5  23116666.555    23116675.473           9.000
         9.250
   -276454.840 6   -215418.848 6  21578268.969    21578276.148          17.500
        19.500
   1985985.809 7   1545588.339 6  21131320.273    21131327.184          20.250
        20.000
   -608468.623 6   -474130.498 6  21396223.172    21396229.199          19.750
        18.750
 99  3  3  0 27 45.0000000  0  7G 4G 5G 6G 8G10G24G30
   3200637.567 5   2494003.211 5  24146431.875    24146440.277           7.500
         7.750
   1243089.995 7    967611.786 6  20551522.313    20551528.664          23.000
        18.250
   -765930.925 5   -595878.816 5  23248256.352    23248264.273          11.250
        11.000
   2182743.207 5   1684027.455 5  23127629.727    23127638.656           8.750
         9.250
   -281002.317 6   -218962.319 6  21577403.547    21577410.691          17.500
        19.500
   2029848.372 7   1579766.957 6  21139667.117    21139674.004          20.500
        20.000
   -618662.481 6   -482073.745 6  21394283.383    21394289.410          19.750
        18.750
 99  3  3  0 28  0.0000000  0  7G 4G 5G 6G 8G10G24G30
   3267249.631 5   2545908.705 5  24159108.156    24159115.938           8.000
         7.250
   1272447.350 7    990487.649 6  20557108.734    20557115.102          23.000
        18.250
   -780941.297 5   -607575.183 5  23245399.813    23245407.574          11.250
        11.000
   2240420.150 5   1728970.494 5  23138605.180    23138614.258           8.750
         9.250
   -285417.189 6   -222402.463 6  21576563.313    21576570.469          17.750
        19.500
   2073784.339 7   1614002.774 6  21148027.695    21148034.680          20.250
        20.000
   -628738.632 6   -489925.280 6  21392366.078    21392372.227          19.500
        18.750
 99  3  3  0 28 15.0000000  0  7G 4G 5G 6G 8G10G24G30
   3333862.188 5   2597814.595 5  24171784.133    24171791.957           8.000
         7.000
   1301943.756 7   1013471.865 6  20562721.633    20562728.105          23.000
        18.500
   -795936.260 5   -619259.521 5  23242546.313    23242554.242          11.250
        11.000
   2298164.822 5   1773966.322 5  23149593.531    23149602.715           8.750
         9.250
   -289697.258 6   -225737.561 6  21575749.008    21575756.066          17.750
        19.500
   2117791.667 7   1648294.202 6  21156402.141    21156408.961          20.500
        19.750
   -638696.278 6   -497684.464 6  21390471.172    21390477.277          19.500
        18.750
 99  3  3  0 28 30.0000000  0  7G 4G 5G 6G 8G10G24G30
   3400477.121 5   2649722.328 5  24184460.133    24184467.934           7.500
         6.750
   1331577.203 7   1036562.862 6  20568360.797    20568367.191          23.000
        18.250
   -810917.741 5   -630933.358 5  23239695.391    23239703.246          11.250
        11.250
   2355975.910 5   1819013.893 5  23160594.539    23160603.754           8.500
         9.250
   -293839.450 6   -228965.228 6  21574960.742    21574967.859          17.750
        19.500
   2161872.693 7   1682643.059 6  21164790.492    21164797.281          20.250
        19.750
   -648534.935 6   -505350.943 6  21388598.852    21388605.012          19.500
        18.750
 99  3  3  0 28 45.0000000  0  7G 4G 5G 6G 8G10G24G30
   3467095.510 4   2701632.761 5  24197137.086    24197145.590           7.250
         7.250
   1361347.695 7   1059760.649 6  20574025.922    20574032.289          23.000
        18.500
   -825887.527 5   -642598.089 5  23236846.828    23236854.691          11.250
        11.250
   2413857.209 5   1864116.167 5  23171608.938    23171618.219           8.750
         9.250
   -297839.408 6   -232082.058 6  21574199.625    21574206.637          17.750
        19.500
   2206029.866 7   1717051.252 6  21173193.258    21173200.152          20.250
        19.750
   -658252.646 6   -512923.168 6  21386749.719    21386755.703          19.500
        18.750
 99  3  3  0 29  0.0000000  0  7G 4G 5G 6G 8G10G24G30
   3533716.324 4   2753545.054 5  24209814.477    24209823.148           7.250
         7.500
   1391256.747 7   1083066.403 6  20579717.477    20579723.852          23.000
        18.500
   -840848.131 5   -654255.656 5  23233999.781    23234007.848          11.250
        11.250
   2471809.608 5   1909273.867 5  23182636.984    23182646.258           8.750
         9.250
   -301692.075 6   -235084.117 6  21573466.391    21573473.406          17.750
        19.500
   2250262.277 7   1751518.069 6  21181610.516    21181617.406          20.500
        19.750
   -667850.991 6   -520402.385 6  21384923.102    21384929.242          19.500
        18.750
 99  3  3  0 29 15.0000000  0  7G 4G 5G 6G 8G10G24G30
   3600338.687 5   2805458.575 5  24222492.688    24222500.715           7.500
         7.250
   1421304.725 7   1106480.412 6  20585435.383    20585441.676          23.000
        18.500
   -855804.355 5   -665909.819 5  23231153.703    23231161.859          11.250
        11.500
   2529831.177 5   1954485.456 5  23193678.266    23193687.422           8.750
         9.250
   -305398.602 6   -237972.295 6  21572761.016    21572768.066          17.750
        19.500
   2294566.525 7   1786040.863 6  21190041.203    21190047.953          20.500
        19.500
   -677332.246 6   -527790.360 6  21383118.844    21383124.984          19.500
        18.750
 99  3  3  0 29 30.0000000  0  7G 4G 5G 6G 8G10G24G30
   3666963.784 5   2857374.227 5  24235171.094    24235178.973           7.500
         7.000
   1451488.579 7   1130000.301 6  20591179.328    20591185.680          23.000
        18.750
   -870757.016 5   -677561.202 5  23228308.453    23228316.320          11.250
        11.250
   2587920.700 5   1999749.976 5  23204732.320    23204741.543           8.750
         9.250
   -308958.798 6   -240746.457 6  21572083.461    21572090.547          17.750
        19.500
   2338938.704 7   1820616.591 6  21198485.070    21198491.852          20.500
        19.500
   -686700.652 6   -535090.400 6  21381336.133    21381342.301          19.250
        18.750
 99  3  3  0 29 45.0000000  0  7G 4G 5G 6G 8G10G24G30
   3733589.964 4   2909290.719 5  24247849.594    24247857.371           7.250
         6.500
   1481802.790 7   1153621.761 6  20596947.875    20596954.145          23.000
        18.750
   -885706.723 5   -689210.290 5  23225463.445    23225471.426          11.250
        11.500
   2646077.430 5   2045066.877 5  23215799.188    23215808.512           8.500
         9.250
   -312375.381 6   -243408.712 6  21571433.289    21571440.395          17.750
        19.500
   2383372.450 7   1855240.293 6  21206940.430    21206947.250          20.250
        19.500
   -695958.884 6   -542304.592 6  21379574.328    21379580.379          19.500
        18.750
 99  3  3  0 30  0.0000000  0  7G 4G 5G 6G 8G10G24G30
   3800217.512 4   2961208.288 5  24260528.438    24260535.813           7.250
         6.250
   1512244.784 7   1177342.798 6  20602740.797    20602747.094          23.250
        18.750
   -900651.242 5   -700855.329 5  23222619.680    23222627.602          11.500
        11.500
   2704300.220 5   2090435.272 5  23226878.852    23226887.742           8.750
         9.250
   -315648.553 6   -245959.213 6  21570810.406    21570817.539          17.750
        19.500
   2427865.852 7   1889910.482 6  21215407.281    21215414.074          20.500
        19.500
   -705103.311 6   -549430.102 6  21377834.148    21377840.355          19.500
        18.750
 99  3  3  0 30 15.0000000  0  7G 4G 5G 6G 8G10G24G30
   3866846.399 4   3013126.892 5  24273206.867    24273215.168           6.250
         6.250
   1542816.701 7   1201165.071 6  20608558.406    20608564.758          23.250
        18.750
   -915589.071 5   -712495.166 5  23219776.977    23219784.945          11.750
        11.500
   2762586.151 5   2135852.859 5  23237970.328    23237979.332           8.750
         9.250
   -318778.242 6   -248397.916 6  21570214.797    21570222.023          17.500
        19.500
   2472419.382 7   1924627.518 6  21223885.531    21223892.289          20.500
        19.250
   -714133.232 6   -556466.391 6  21376115.820    21376121.875          19.500
        18.750
 99  3  3  0 30 30.0000000  0  7G 4G 5G 6G 8G10G24G30
   3933474.580 4   3065044.925 5  24285886.195    24285893.930           6.500
         6.250
   1573520.357 7   1225090.000 6  20614401.125    20614407.469          23.250
        19.000
   -930521.901 5   -724131.105 5  23216935.313    23216943.090          11.750
        11.500
   2820931.821 5   2181316.989 5  23249072.977    23249081.891           8.750
         9.250
   -321765.505 6   -250725.631 6  21569646.383    21569653.445          17.500
        19.500
   2517036.515 7   1959394.121 6  21232375.867    21232382.555          20.250
        19.250
   -723051.461 6   -563415.648 6  21374418.656    21374424.707          19.500
        18.750
 99  3  3  0 30 45.0000000  0  7G 4G 5G 6G 8G10G24G30
   4000101.086 4   3116961.691 5  24298565.227    24298572.422           6.750
         6.000
   1604360.057 7   1249120.932 6  20620269.781    20620276.094          23.250
        19.250
   -945449.049 5   -735762.611 5  23214094.828    23214102.688          11.750
        11.500
   2879337.350 5   2226827.760 5  23260187.234    23260196.395           8.750
         9.000
   -324610.288 6   -252942.325 6  21569104.859    21569112.023          17.500
        19.500
   2561720.365 7   1994212.705 6  21240878.984    21240885.770          20.250
        19.250
   -731854.979 6   -570275.515 6  21372743.492    21372749.531          19.500
        19.000
 99  3  3  0 31  0.0010000  0  7G 4G 5G 6G 8G10G24G30
   4066726.054 4   3168877.227 5  24311243.146    24311250.911           6.500
         6.000
   1635334.051 7   1273256.510 6  20626163.966    20626170.376          23.250
        19.250
   -960372.686 5   -747391.388 5  23211254.856    23211262.946          11.750
        11.500
   2937802.811 5   2272385.228 5  23271312.958    23271322.005           8.750
         9.000
   -327318.525 6   -255052.628 6  21568589.567    21568596.782          17.500
        19.500
   2606467.633 7   2029080.709 6  21249393.911    21249400.657          20.250
        19.000
   -740548.299 6   -577049.517 6  21371089.130    21371095.255          19.500
        19.000
 99  3  3  0 31 15.0010000  0  7G 4G 5G 6G 8G10G24G30
   4133344.826 4   3220787.943 5  24323920.419    24323927.708           6.500
         5.750
   1666441.361 7   1297495.975 6  20632083.481    20632089.841          23.250
        19.500
   -975286.104 5   -759012.202 5  23208417.013    23208424.849          11.750
        11.250
   2996321.105 5   2317983.878 5  23282448.646    23282457.747           8.750
         9.000
   -329891.059 6   -257057.176 6  21568100.028    21568107.188          17.500
        19.500
   2651274.703 7   2063995.312 6  21257920.630    21257927.388          20.250
        19.000
   -749123.419 6   -583731.414 6  21369457.380    21369463.556          19.500
        19.000
 99  3  3  0 31 30.0010000  0  7G 4G 5G 6G 8G10G24G30
   4199958.586 3   3272694.756 5  24336596.333    24336603.810           6.000
         5.750
   1697674.963 7   1321833.844 6  20638027.021    20638033.380          23.250
        19.500
   -990193.282 6   -770628.163 5  23205580.349    23205587.892          12.000
        11.250
   3054888.923 5   2363621.102 5  23293593.935    23293602.876           8.750
         9.000
   -332338.103 6   -258963.951 6  21567634.247    21567641.435          17.250
        19.500
   2696138.399 7   2098954.045 6  21266457.849    21266464.540          20.250
        19.000
   -757585.634 6   -590325.332 6  21367847.067    21367853.185          19.500
        19.250
 99  3  3  0 31 45.0010000  0  7G 4G 5G 6G 8G10G24G30
   4266571.983 4   3324601.283 5  24349272.419    24349280.368           6.250
         5.750
   1729035.150 7   1346270.355 6  20643994.661    20644001.040          23.000
        19.500
  -1005089.893 6   -782235.874 5  23202745.497    23202753.399          12.000
        11.250
   3113506.367 5   2409297.009 5  23304748.224    23304757.294           8.500
         9.000
   -334658.117 6   -260771.732 6  21567192.833    21567200.071          17.250
        19.500
   2741061.284 7   2133958.890 6  21275006.263    21275013.040          20.250
        18.750
   -765929.565 6   -596827.085 6  21366259.278    21366265.450          19.500
        19.250
 99  3  3  0 32  0.0010000  0  7G 4G 5G 6G 8G10G24G30
   4333187.503 4   3376509.458 5  24361949.356    24361956.712           6.750
         6.000
   1760525.424 7   1370808.227 6  20649987.138    20649993.540          23.000
        19.500
  -1019974.211 6   -793834.017 5  23199912.935    23199920.696          12.000
        11.250
   3172173.904 5   2455011.948 5  23315912.052    23315921.247           8.250
         9.250
   -336846.694 6   -262477.095 6  21566776.247    21566783.470          17.250
        19.500
   2786049.945 7   2169014.992 6  21283567.271    21283574.028          20.000
        18.750
   -774150.023 6   -603232.624 6  21364694.974    21364701.060          19.500
        19.250
 99  3  3  0 32 15.0010000  0  7G 4G 5G 6G 8G10G24G30
   4399799.961 4   3428415.260 5  24374625.427    24374632.825           6.750
         5.750
   1792143.508 7   1395445.696 6  20656003.599    20656010.126          23.000
        19.750
  -1034851.177 6   -805426.431 5  23197081.989    23197089.673          12.250
        11.250
   3230884.901 5   2500760.739 5  23327084.731    23327093.864           8.250
         9.000
   -338906.970 6   -264082.489 6  21566384.255    21566391.396          17.250
        19.500
   2831104.358 7   2204122.330 6  21292140.817    21292147.673          20.000
        18.750
   -782252.480 6   -609546.211 6  21363153.192    21363159.267          19.500
        19.250
 99  3  3  0 32 30.0010000  0  7G 4G 5G 6G 8G10G24G30
   4466413.369 4   3480321.787 5  24387301.271    24387308.673           6.250
         5.750
   1823894.879 7   1420187.021 6  20662045.794    20662052.435          22.750
        19.750
  -1049721.329 6   -817013.533 5  23194252.239    23194259.989          12.250
        11.250
   3289646.176 5   2546548.730 5  23338266.716    23338275.665           8.000
         9.000
   -340838.678 6   -265587.698 6  21566016.677    21566023.974          17.250
        19.750
   2876227.220 7   2239283.001 6  21300727.372    21300734.220          20.000
        18.750
   -790238.005 6   -615768.690 6  21361633.450    21361639.509          19.750
        19.250
 99  3  3  0 32 45.0010000  0  7G 4G 5G 6G 8G10G24G30
   4533032.754 3   3532232.985 5  24399978.052    24399985.606           5.750
         5.000
   1855783.924 7   1445035.624 6  20668114.099    20668120.653          22.750
        19.500
  -1064579.537 6   -828591.329 5  23191425.021    23191432.567          12.250
        11.250
   3348464.387 5   2592381.066 5  23349459.458    23349468.630           8.000
         9.000
   -342637.358 6   -266989.249 6  21565674.403    21565681.665          17.500
        19.500
   2921420.485 7   2274498.538 6  21309327.450    21309334.239          20.000
        18.750
   -798102.224 6   -621896.642 6  21360137.044    21360143.028          19.750
        19.250
 99  3  3  0 33  0.0010000  0  7G 4G 5G 6G 8G10G24G30
   4599655.277 3   3584146.608 5  24412655.763    24412663.353           5.750
         5.000
   1887803.557 7   1469985.984 6  20674207.216    20674213.665          22.750
        19.500
  -1079428.169 6   -840161.673 5  23188599.239    23188606.935          12.500
        11.250
   3407336.369 5   2638255.304 5  23360662.372    23360671.591           7.750
         9.000
   -344307.308 6   -268290.490 6  21565356.552    21565363.845          17.500
        19.750
   2966677.129 6   2309763.456 6  21317939.583    21317946.388          19.750
        18.750
   -805848.000 7   -627932.297 6  21358663.122    21358669.103          20.000
        19.250
 99  3  3  0 33 15.0010000  0  7G 4G 5G 6G 8G10G24G30
   4666282.106 4   3636063.616 5  24425335.161    24425341.798           6.500
         4.750
   1919955.209 7   1495039.216 6  20680325.435    20680331.958          22.500
        19.750
  -1094267.899 6   -851725.065 5  23185775.161    23185782.810          12.500
        11.250
   3466262.354 5   2684171.624 5  23371875.763    23371884.790           7.750
         9.000
   -345846.921 6   -269490.171 6  21565063.442    21565070.817          17.250
        19.750
   3011999.450 6   2345079.552 6  21326563.989    21326570.829          19.500
        18.750
   -813473.928 7   -633874.567 6  21357211.810    21357217.829          20.000
        19.250
 99  3  3  0 33 30.0010000  0  7G 4G 5G 6G 8G10G24G30
   4732916.593 4   3687986.576 5  24438015.739    24438022.067           7.000
         5.000
   1952243.696 7   1520199.079 6  20686469.771    20686476.325          22.250
        19.500
  -1109095.966 6   -863279.382 5  23182953.724    23182961.356          12.750
        11.250
   3525246.593 5   2730133.341 5  23383099.896    23383109.165           7.500
         9.000
   -347250.254 6   -270583.659 6  21564796.372    21564803.747          17.000
        19.750
   3057392.346 6   2380450.643 6  21335202.005    21335208.833          19.750
        18.750
   -820976.663 7   -639720.835 6  21355784.130    21355790.075          20.000
        19.250
 99  3  3  0 33 45.0010000  0  7G 4G 5G 6G 8G10G24G30
   4799550.965 4   3739909.455 5  24450695.646    24450702.751           7.000
         5.250
   1984664.541 7   1545462.067 6  20692639.177    20692645.646          22.500
        19.500
  -1123917.236 6   -874828.403 5  23180133.122    23180140.774          12.250
        11.500
   3584284.828 5   2776137.124 5  23394334.466    23394343.696           7.500
         9.000
   -348517.467 6   -271571.085 6  21564555.294    21564562.739          17.000
        19.750
   3102850.160 6   2415872.310 6  21343852.325    21343859.224          19.500
        19.000
   -828363.494 7   -645476.801 6  21354378.536    21354384.509          20.250
        19.250
 99  3  3  0 34  0.0010000  0  7G 4G 5G 6G 8G10G24G30
   4866185.289 4   3791832.297 5  24463375.638    24463382.798           6.750
         5.500
   2017224.171 7   1570833.209 6  20698835.106    20698841.567          22.250
        19.500
  -1138729.237 6   -886370.194 5  23177314.567    23177322.122          12.500
        11.500
   3643383.178 5   2822187.739 5  23405580.583    23405589.892           7.750
         9.250
   -349642.373 6   -272447.614 6  21564341.317    21564348.614          17.000
        19.750
   3148379.312 6   2451349.575 6  21352516.185    21352523.196          19.500
        19.250
   -835630.277 7   -651139.213 6  21352995.638    21353001.579          20.250
        19.250
 99  3  3  0 34 15.0010000  0  7G 4G 5G 6G 8G10G24G30
   4932813.271 3   3843750.178 5  24476054.450    24476061.919           6.000
         5.500
   2049920.496 7   1596310.858 6  20705056.966    20705063.536          22.250
        19.500
  -1153536.004 6   -897907.914 5  23174496.810    23174504.454          12.500
        11.500
   3702541.798 4   2868285.333 5  23416838.192    23416847.438           7.250
         9.000
   -350630.020 6   -273217.191 6  21564153.263    21564160.669          17.250
        20.000
   3193978.086 6   2486881.090 6  21361193.513    21361200.536          19.250
        19.250
   -842783.805 7   -656713.377 6  21351634.341    21351640.333          20.250
        19.250
 99  3  3  0 34 30.0010000  0  7G 4G 5G 6G 8G10G24G30
   4999430.551 4   3895659.707 5  24488731.669    24488738.399           6.250
         5.000
   2082749.531 7   1621891.927 6  20711304.114    20711310.595          22.500
        19.500
  -1168341.976 6   -909445.008 5  23171679.239    23171686.751          12.500
        11.750
   3761758.106 4   2914427.878 5  23428106.606    23428115.978           7.250
         9.000
   -351488.565 6   -273886.165 6  21563989.817    21563997.185          17.250
        20.250
   3239638.095 6   2522460.318 6  21369881.935    21369888.962          19.000
        19.000
   -849829.334 7   -662203.383 6  21350293.700    21350299.638          20.250
        19.250
 99  3  3  0 34 45.0010000  0  7G 4G 5G 6G 8G10G24G30
   5066041.016 4   3947563.942 5  24501407.255    24501413.345           6.750
         5.000
   2115714.411 7   1647578.839 6  20717577.216    20717583.677          22.750
        19.750
  -1183142.941 6   -920978.194 5  23168862.685    23168870.302          12.750
        11.750
   3821035.289 5   2960617.862 5  23439386.802    23439396.017           7.500
         9.000
   -352213.477 6   -274451.017 6  21563851.833    21563859.345          17.000
        20.250
   3285361.848 6   2558089.213 6  21378583.106    21378590.083          19.000
        18.750
   -856761.213 7   -667604.834 6  21348974.497    21348980.575          20.500
        19.500
 99  3  3  0 35  0.0010000  0  7G 4G 5G 6G 8G10G24G30
   5132639.660 4   3999458.967 5  24514080.200    24514086.743           6.750
         5.000
   2148811.210 7   1673368.560 6  20723875.349    20723881.806          22.750
        19.750
  -1197940.980 6   -932509.109 5  23166046.685    23166054.208          12.750
        11.500
   3880366.589 4   3006850.008 5  23450676.942    23450686.345           7.250
         8.750
   -352804.596 6   -274911.607 6  21563739.380    21563746.782          17.250
        20.000
   3331145.876 6   2593765.078 6  21387295.247    21387302.372          18.500
        18.750
   -863576.631 7   -672915.533 6  21347677.599    21347683.591          20.000
        19.500
 99  3  3  0 35 15.0010000  0  7G 4G 5G 6G 8G10G24G30
   5199220.270 4   4051339.941 5  24526750.536    24526756.911           7.250
         5.000
   2182034.457 7   1699256.796 6  20730197.583    20730203.927          22.750
        19.500
  -1212744.240 6   -944044.087 5  23163229.677    23163237.169          12.750
        11.750
   3939745.483 4   3053119.246 5  23461976.505    23461985.786           7.250
         8.500
   -353266.810 6   -275271.755 6  21563651.317    21563658.712          17.000
        20.000
   3376984.231 6   2629483.276 6  21396017.935    21396025.216          18.250
        19.000
   -870280.092 7   -678138.997 6  21346401.958    21346407.942          20.250
        19.500
 99  3  3  0 35 30.0010000  0  7G 4G 5G 6G 8G10G24G30
   5265787.157 5   4103210.235 5  24539417.716    24539423.923           7.500
         5.000
   2215387.687 7   1725246.328 6  20736544.474    20736550.856          22.750
        19.500
  -1227548.791 6   -955580.075 5  23160412.661    23160420.149          12.750
        11.750
   3999176.331 4   3099428.960 5  23473285.817    23473295.259           7.250
         8.750
   -353595.087 6   -275527.541 6  21563588.896    21563596.290          17.000
        20.250
   3422878.351 6   2665244.924 6  21404751.294    21404758.524          18.250
        19.250
   -876868.294 7   -683272.648 6  21345148.271    21345154.267          20.250
        19.500
 99  3  3  0 35 45.0010000  0  7G 4G 5G 6G 8G10G24G30
   5332340.665 5   4155070.092 5  24552082.606    24552088.864           7.500
         4.750
   2248867.912 7   1751334.815 6  20742915.481    20742921.899          22.750
        19.500
  -1242351.888 6   -967114.918 5  23157595.614    23157603.122          12.500
        11.750
   4058658.801 5   3145778.908 5  23484605.263    23484614.438           7.500
         8.500
   -353787.888 6   -275677.750 6  21563552.372    21563559.587          17.500
        20.250
   3468826.471 6   2701048.660 6  21413494.950    21413502.341          18.250
        19.250
   -883340.948 7   -688316.260 6  21343916.528    21343922.595          20.250
        19.500
 99  3  3  0 36  0.0010000  0  6G 5G 6G 8G10G24G30
   2282474.403 7   1777521.682 6  20749310.489    20749316.868          22.750
        19.500
  -1257155.559 6   -978650.225 5  23154778.544    23154786.044          12.750
        11.750
   4118191.131 5   3192167.694 5  23495933.919    23495943.048           7.500
         8.750
   -353845.772 6   -275722.838 6  21563541.271    21563548.579          17.500
        20.250
   3514831.683 6   2736896.869 6  21422249.599    21422256.774          18.500
        19.500
   -889697.236 7   -693269.199 6  21342706.974    21342713.009          20.000
        19.500
 99  3  3  0 36 15.0010000  0  6G 5G 6G 8G10G24G30
   2316204.433 7   1803804.819 6  20755729.271    20755735.653          22.500
        19.500
  -1271959.940 6   -990186.072 6  23151961.442    23151969.013          12.750
        12.250
   4177771.494 5   3238593.912 5  23507271.685    23507280.778           7.500
         8.250
   -353771.616 6   -275665.040 6  21563555.380    21563562.700          17.500
        20.250
   3560894.365 6   2772789.871 6  21431015.005    21431022.353          18.250
        19.500
   -895937.935 7   -698132.069 6  21341519.380    21341525.376          20.000
        19.500
 99  3  3  0 36 30.0010000  0  6G 5G 6G 8G10G24G30
   2350059.263 7   1830185.207 6  20762171.560    20762177.919          22.250
        19.250
  -1286760.831 6  -1001719.207 6  23149144.856    23149152.376          12.750
        12.250
   4237398.522 5   3285056.491 5  23518618.544    23518627.548           7.500
         8.500
   -353560.387 6   -275500.421 6  21563595.661    21563602.896          17.500
        20.250
   3607012.554 6   2808726.119 6  21439791.021    21439798.360          18.500
        19.500
   -902061.522 7   -702903.679 6  21340354.044    21340360.013          20.000
        19.500
 99  3  3  0 36 45.0010000  0  6G 5G 6G 8G10G24G30
   2384045.764 7   1856668.193 6  20768638.896    20768645.306          22.250
        19.250
  -1301551.075 6  -1013244.036 6  23146330.419    23146337.849          13.000
        12.250
   4297076.206 4   3331558.541 5  23529974.536    23529983.681           7.250
         8.750
   -353201.604 6   -275220.834 6  21563663.911    21563671.138          17.500
        20.500
   3653190.997 6   2844709.316 6  21448578.442    21448585.810          18.500
        19.500
   -908059.192 7   -707577.169 6  21339212.614    21339218.700          20.000
        19.500
 99  3  3  0 37  0.0010000  0  6G 5G 6G 8G10G24G30
   2418154.775 7   1883246.639 6  20775129.575    20775136.024          21.750
        19.500
  -1316336.749 6  -1024765.303 6  23143516.810    23143524.130          13.000
        12.500
   4356795.041 4   3378092.653 5  23541338.771    23541347.907           6.750
         9.000
   -352698.323 6   -274828.648 6  21563759.583    21563766.794          17.750
        20.500
   3699423.126 6   2880734.361 6  21457376.130    21457383.368          18.500
        19.250
   -913937.061 7   -712157.313 6  21338094.114    21338100.196          20.000
        19.500
 99  3  3  0 37 15.0010000  0  6G 5G 6G 8G10G24G30
   2452388.855 7   1909922.542 6  20781644.122    20781650.614          21.500
        19.250
  -1331113.010 6  -1036279.236 6  23140704.833    23140712.321          13.000
        12.500
   4416558.185 4   3424661.314 5  23552711.544    23552720.544           6.500
         9.000
   -352047.013 6   -274321.108 6  21563883.606    21563890.771          17.750
        20.500
   3745712.879 6   2916804.293 6  21466184.794    21466192.024          18.500
        19.250
   -919693.502 7   -716642.833 6  21336998.661    21337004.720          20.000
        19.500
 99  3  3  0 37 30.0010000  0  6G 5G 6G 8G10G24G30
   2486745.400 7   1936693.874 6  20788181.841    20788188.278          21.750
        19.250
  -1345879.290 6  -1047785.393 6  23137894.911    23137902.446          13.000
        12.500
   4476363.711 4   3471262.983 5  23564091.864    23564101.169           6.500
         8.750
   -351247.921 6   -273698.418 6  21564035.513    21564042.724          17.750
        20.500
   3792061.382 6   2952920.013 6  21475004.724    21475012.036          18.500
        19.750
   -925332.672 7   -721036.970 6  21335925.575    21335931.681          20.000
        19.500
 99  3  3  0 37 45.0010000  0  6G 5G 6G 8G10G24G30
   2521224.071 7   1963560.368 6  20794743.138    20794749.536          21.750
        19.250
  -1360634.269 6  -1059282.744 6  23135087.122    23135094.626          13.000
        12.500
   4536207.802 4   3517894.698 5  23575479.810    23575489.255           6.500
         8.750
   -350301.675 6   -272961.060 6  21564215.599    21564222.837          17.750
        20.500
   3838470.848 6   2989083.231 6  21483836.099    21483843.606          18.500
        19.750
   -930854.800 6   -725339.913 6  21334874.653    21334880.774          19.750
        19.750
 99  3  3  0 38  0.0010000  0  6G 5G 6G 8G10G24G30
   2555832.143 7   1990527.695 6  20801328.731    20801335.188          21.500
        19.500
  -1375373.277 6  -1070767.654 6  23132282.263    23132289.728          13.000
        12.750
   4596092.835 4   3564558.315 5  23586875.513    23586885.149           6.250
         9.250
   -349203.892 6   -272105.626 6  21564424.544    21564431.739          17.500
        20.500
   3884945.928 6   3025297.580 6  21492680.044    21492687.419          18.750
        19.750
   -936255.669 6   -729548.359 6  21333846.896    21333853.071          19.750
        19.750
 99  3  3  0 38 15.0010000  0  6G 5G 6G 8G10G24G30
   2590569.506 7   2017595.768 6  20807939.099    20807945.505          21.750
        19.500
  -1390098.311 6  -1082241.664 6  23129480.185    23129487.696          13.000
        12.750
   4656016.389 4   3611251.954 5  23598278.552    23598288.067           6.250
         9.000
   -347956.787 6   -271133.828 6  21564661.817    21564669.071          17.750
        20.500
   3931480.524 6   3061558.305 6  21501535.099    21501542.485          18.500
        19.750
   -941537.186 7   -733663.808 6  21332841.841    21332847.962          20.000
        19.750
 99  3  3  0 38 30.0010000  0  6G 5G 6G 8G10G24G30
   2625436.300 7   2044764.696 6  20814573.958    20814580.474          21.750
        19.500
  -1404809.991 6  -1093705.276 6  23126680.505    23126688.075          13.000
        13.000
   4715975.279 4   3657973.133 5  23609688.138    23609697.927           6.250
         9.000
   -346562.097 6   -270047.038 6  21564927.075    21564934.345          17.750
        20.500
   3978065.851 6   3097858.559 6  21510400.005    21510407.450          18.500
        19.750
   -946700.785 7   -737687.376 6  21331859.302    21331865.474          20.000
        20.000
 99  3  3  0 38 45.0010000  0  6G 5G 6G 8G10G24G30
   2660435.360 7   2072036.689 6  20821234.021    20821240.481          22.000
        19.500
  -1419506.654 6  -1105157.172 6  23123883.833    23123891.337          13.250
        12.750
   4775971.278 4   3704723.232 5  23621105.247    23621114.782           6.250
         9.000
   -345020.956 6   -268846.124 6  21565220.396    21565227.646          17.500
        20.500
   4024700.775 6   3134197.457 6  21519274.364    21519281.798          18.750
        19.750
   -951744.009 7   -741617.140 6  21330899.552    21330905.532          20.000
        20.000
 99  3  3  0 39  0.0010000  0  6G 5G 6G 8G10G24G30
   2695563.168 7   2099409.000 6  20827918.622    20827925.099          22.000
        19.500
  -1434192.282 6  -1116600.486 6  23121089.044    23121096.673          12.500
        13.000
   4836002.269 4   3751500.575 5  23632528.599    23632538.372           6.250
         9.250
   -343339.330 6   -267535.746 6  21565540.380    21565547.579          17.750
        20.250
   4071386.652 6   3170576.066 6  21528158.356    21528165.724          18.750
        19.750
   -956666.281 7   -745452.659 6  21329962.864    21329968.974          20.000
        20.000
 99  3  3  0 39 15.0010000  0  6G 5G 6G 8G10G24G30
   2730822.328 7   2126883.666 6  20834628.356    20834634.728          22.000
        19.750
  -1448863.448 6  -1128032.526 6  23118297.411    23118304.966          12.750
        13.000
   4896071.157 4   3798307.441 5  23643959.521    23643969.325           6.250
         9.500
   -341516.674 6   -266115.476 6  21565887.349    21565894.442          17.500
        20.250
   4118126.302 6   3206996.571 6  21537052.763    21537060.106          18.750
        20.000
   -961464.415 7   -749191.454 6  21329049.708    21329055.837          20.000
        20.000
 99  3  3  0 39 30.0010000  0  6G 5G 6G 8G10G24G30
   2766214.004 7   2154461.586 6  20841363.130    20841369.614          21.750
        19.750
  -1463521.682 6  -1139454.494 6  23115508.114    23115515.532          13.000
        13.000
   4956177.168 4   3845143.245 5  23655397.403    23655407.263           7.000
         9.500
   -339554.479 6   -264586.468 6  21566260.630    21566267.790          17.500
        20.250
   4164920.022 6   3243459.211 6  21545957.372    21545964.712          18.750
        19.750
   -966137.321 7   -752832.656 6  21328160.685    21328166.704          20.000
        20.000
 99  3  3  0 39 45.0010000  0  6G 5G 6G 8G10G24G30
   2801739.756 7   2182143.988 6  20848123.442    20848129.946          21.750
        19.750
  -1478169.760 6  -1150868.541 6  23112720.536    23112727.962          13.500
        12.750
   5016320.304 4   3892007.985 5  23666842.403    23666852.056           7.250
         9.750
   -337455.776 6   -262951.091 6  21566659.724    21566667.036          17.250
        20.250
   4211765.619 6   3279962.277 6  21554871.778    21554879.040          18.750
        19.750
   -970683.564 7   -756375.161 6  21327295.396    21327301.474          20.000
        20.000
 99  3  3  0 40  0.0010000  0  6G 5G 6G 8G10G24G30
   2837401.984 7   2209932.731 6  20854909.763    20854916.290          22.000
        20.000
  -1492805.632 6  -1162273.092 6  23109935.489    23109942.923          13.250
        12.750
   5076505.494 4   3938905.495 5  23678295.646    23678305.153           7.000
         9.500
   -335220.233 6   -261209.086 6  21567085.302    21567092.470          17.500
        20.500
   4258662.895 6   3316505.607 6  21563796.075    21563803.376          19.000
        19.750
   -975102.057 7   -759818.128 6  21326454.646    21326460.649          20.000
        20.000
 99  3  3  0 40 15.0010000  0  6G 5G 6G 8G10G24G30
   2873195.773 7   2237823.997 6  20861721.028    20861727.521          21.750
        20.000
  -1507433.857 6  -1173671.659 6  23107151.864    23107159.282          13.500
        13.250
   5136732.084 5   3985835.274 5  23689755.989    23689765.591           7.500
         9.750
   -332851.978 6   -259363.668 6  21567536.005    21567543.185          17.750
        20.500
   4305608.633 6   3353086.703 6  21572729.411    21572736.700          19.250
        19.750
   -979395.068 7   -763163.310 6  21325637.544    21325643.825          20.000
        20.000
 99  3  3  0 40 30.0010000  0  6G 5G 6G 8G10G24G30
   2909120.060 7   2265816.947 6  20868557.302    20868563.856          22.000
        20.000
  -1522053.339 6  -1185063.432 6  23104369.778    23104377.087          13.500
        13.250
   5197003.130 5   4032799.668 5  23701225.606    23701235.067           7.500
        10.000
   -330349.934 6   -257414.001 6  21568012.106    21568019.310          17.500
        20.750
   4352608.046 6   3389709.624 6  21581673.216    21581680.501          19.250
        19.750
   -983561.088 6   -766409.548 6  21324844.864    21324850.970          19.750
        20.000
 99  3  3  0 40 45.0010000  0  6G 5G 6G 8G10G24G30
   2945171.763 7   2293909.176 6  20875417.724    20875424.181          22.000
        20.250
  -1536666.698 6  -1196450.436 6  23101588.880    23101596.337          13.500
        13.250
   5257318.093 5   4079798.311 5  23712703.208    23712712.677           7.500
         9.750
   -327717.181 6   -255362.482 6  21568512.896    21568520.009          17.500
        20.500
   4399663.743 6   3426376.400 6  21590627.646    21590634.950          19.250
        19.750
   -987602.266 7   -769558.499 6  21324075.888    21324081.978          20.000
        20.000
 99  3  3  0 41  0.0010000  0  6G 5G 6G 8G10G24G30
   2981349.064 7   2322099.281 6  20882302.052    20882308.610          22.000
        20.250
  -1551277.807 6  -1207835.680 6  23098808.474    23098815.946          13.500
        13.000
   5317676.452 5   4126830.756 5  23724189.106    23724198.708           7.500
         9.750
   -324952.621 6   -253208.250 6  21569038.903    21569046.161          17.500
        20.500
   4446779.134 6   3463089.697 6  21599593.403    21599600.677          19.250
        19.750
   -991517.762 7   -772609.527 6  21323330.810    21323336.864          20.000
        20.250
 99  3  3  0 41 15.0010000  0  6G 5G 6G 8G10G24G30
   3017658.458 7   2350392.308 6  20889211.544    20889218.048          22.250
        20.500
  -1565881.896 6  -1219215.454 6  23096029.450    23096036.896          13.500
        13.250
   5378081.928 5   4173899.918 5  23735683.942    23735693.438           7.500
         9.750
   -322047.379 6   -250944.403 6  21569591.739    21569598.989          17.500
        20.500
   4493960.832 6   3499854.653 6  21608571.786    21608578.923          19.500
        19.750
   -995302.517 7   -775558.667 6  21322610.481    21322616.591          20.000
        20.000
 99  3  3  0 41 30.0010000  0  6G 5G 6G 8G10G24G30
   3054096.932 7   2378785.920 6  20896145.560    20896152.118          22.250
        20.750
  -1580483.867 6  -1230593.589 6  23093250.661    23093258.149          13.250
        13.250
   5438528.780 5   4221001.313 5  23747186.411    23747196.005           7.500
         9.750
   -319005.476 6   -248574.071 6  21570170.606    21570177.798          17.500
        21.000
   4541199.752 6   3536664.201 6  21617561.005    21617568.173          19.500
        19.500
   -998965.476 6   -778412.910 6  21321913.474    21321919.563          19.750
        20.000
 99  3  3  0 41 45.0010000  0  6G 5G 6G 8G10G24G30
   3090666.474 7   2407281.666 6  20903104.466    20903111.032          22.250
        20.500
  -1595079.740 6  -1241966.958 6  23090473.083    23090480.563          13.500
        13.000
   5499021.517 5   4268138.476 5  23758698.060    23758707.481           7.500
        10.000
   -315825.306 6   -246095.988 6  21570775.786    21570783.013          17.500
        20.750
   4588496.418 6   3573518.755 6  21626561.505    21626568.544          19.500
        19.250
  -1002504.816 7   -781170.812 6  21321240.013    21321246.138          20.000
        20.250
 99  3  3  0 42  0.0010000  0  6G 5G 6G 8G10G24G30
   3127366.291 7   2435878.926 6  20910088.255    20910094.821          22.250
        20.750
  -1609668.992 6  -1253335.180 6  23087696.841    23087704.349          13.500
        13.250
   5559562.369 5   4315313.126 5  23770218.849    23770228.063           7.750
         9.500
   -312506.855 6   -243510.150 6  21571407.255    21571414.509          17.500
        20.500
   4635848.782 6   3610416.700 6  21635572.216    21635579.489          19.500
        19.750
  -1005922.366 7   -783833.831 6  21320589.700    21320595.696          20.000
        20.250
 99  3  3  0 42 15.0010000  0  6G 5G 6G 8G10G24G30
   3164193.631 7   2464575.550 6  20917096.294    20917102.735          22.250
        20.500
  -1624254.089 6  -1264700.158 6  23084921.310    23084928.860          13.500
        13.250
   5620147.799 5   4362522.503 5  23781747.817    23781757.118           7.500
         9.250
   -309052.217 6   -240818.208 6  21572064.786    21572071.923          17.500
        20.500
   4683254.740 6   3647356.404 6  21644593.263    21644600.489          19.500
        19.500
  -1009218.586 7   -786402.304 6  21319962.310    21319968.458          20.000
        20.250
 99  3  3  0 42 30.0010000  0  6G 5G 6G 8G10G24G30
   3201147.037 7   2493370.400 6  20924128.161    20924134.669          22.250
        20.500
  -1638839.281 6  -1276065.221 6  23082145.880    23082153.392          13.500
        13.000
   5680771.281 5   4409761.545 5  23793284.083    23793293.396           7.500
         9.000
   -305463.996 6   -238022.169 6  21572747.552    21572754.774          17.500
        20.500
   4730708.331 6   3684333.231 6  21653623.442    21653630.548          19.500
        19.500
  -1012394.597 7   -788877.104 6  21319357.989    21319364.001          20.000
        20.000
 99  3  3  0 42 45.0010000  0  6G 5G 6G 8G10G24G30
   3238231.911 7   2522267.701 6  20931185.185    20931191.700          22.250
        20.500
  -1653423.002 6  -1287429.128 6  23079370.653    23079378.052          13.500
        13.000
   5741432.023 4   4457029.599 5  23804827.153    23804836.521           7.250
         9.000
   -301739.730 6   -235120.120 6  21573456.146    21573463.349          17.500
        20.500
   4778209.432 6   3721347.073 6  21662662.521    21662669.696          19.750
        19.500
  -1015447.348 7   -791255.861 6  21318777.114    21318783.067          20.000
        20.250
 99  3  3  0 43  0.0010000  0  6G 5G 6G 8G10G24G30
   3275450.786 7   2551269.416 6  20938267.747    20938274.255          22.250
        20.500
  -1668002.180 6  -1298789.508 6  23076596.356    23076603.646          13.500
        13.000
   5802129.634 4   4504326.419 5  23816377.575    23816387.099           7.250
         9.000
   -297877.051 6   -232110.212 6  21574191.192    21574198.364          17.500
        20.750
   4825756.539 6   3758396.773 6  21671710.349    21671717.532          19.500
        19.500
  -1018371.773 7   -793534.611 6  21318220.599    21318226.571          20.000
        20.250
 99  3  3  0 43 15.0010000  0  6G 5G 6G 8G10G24G30
   3312802.934 7   2580374.984 6  20945375.669    20945382.185          22.000
        20.750
  -1682574.654 6  -1310144.651 6  23073823.224    23073830.688          13.500
        13.000
   5862861.549 4   4551649.940 5  23827934.685    23827943.974           7.000
         9.000
   -293875.954 6   -228992.456 6  21574952.552    21574959.806          17.500
        21.000
   4873345.957 6   3795479.433 6  21680766.380    21680773.567          19.500
        19.500
  -1021168.721 7   -795714.041 6  21317688.333    21317694.235          20.000
        20.000
 99  3  3  0 43 30.0010000  0  6G 5G 6G 8G10G24G30
   3350284.523 7   2609581.410 6  20952508.153    20952514.735          22.250
        20.750
  -1697138.686 6  -1321493.221 6  23071051.825    23071059.200          13.500
        12.750
   5923627.305 4   4598999.843 5  23839497.833    23839507.677           7.000
         9.000
   -289740.170 6   -225769.746 6  21575739.489    21575746.665          17.250
        20.750
   4920972.780 6   3832591.246 6  21689829.560    21689836.688          19.500
        19.250
  -1023839.435 7   -797795.111 6  21317180.021    21317185.966          20.000
        20.000
 99  3  3  0 43 45.0010000  0  6G 5G 6G 8G10G24G30
   3387894.514 7   2638887.887 6  20959665.138    20959671.579          22.250
        20.750
  -1711692.633 6  -1332833.939 6  23068282.489    23068289.677          13.750
        12.750
   5984431.338 4   4646379.559 5  23851068.458    23851078.251           6.750
         9.000
   -285466.010 6   -222439.207 6  21576552.692    21576559.966          17.250
        21.000
   4968639.945 6   3869734.491 6  21698900.333    21698907.415          19.500
        19.250
  -1026378.880 7   -799773.888 6  21316696.810    21316702.868          20.000
        20.000
 99  3  3  0 44  0.0010000  0  6G 5G 6G 8G10G24G30
   3425628.153 7   2668290.721 6  20966845.419    20966852.067          22.000
        20.750
  -1726240.080 6  -1344169.586 6  23065513.911    23065521.341          13.750
        12.750
   6045268.897 4   4693785.413 5  23862645.310    23862654.903           6.750
         8.750
   -281054.328 6   -219001.508 6  21577392.310    21577399.571          17.250
        21.000
   5016349.578 6   3906910.835 6  21707979.052    21707986.181          19.500
        19.250
  -1028788.972 7   -801651.869 6  21316238.177    21316244.196          20.000
        20.000
 99  3  3  0 44 15.0010000  0  6G 5G 6G 8G10G24G30
   3463486.686 7   2697790.868 6  20974049.856    20974056.298          22.000
        20.500
  -1740780.037 6  -1355499.397 6  23062747.169    23062754.341          13.750
        12.750
   6106135.338 4   4741213.766 5  23874228.185    23874237.782           7.000
         8.750
   -276501.703 6   -215453.984 6  21578258.606    21578265.970          17.250
        21.000
   5064106.458 6   3944123.989 6  21717066.981    21717074.169          19.500
        19.250
  -1031067.706 7   -803427.496 6  21315804.622    21315810.556          20.250
        20.000
 99  3  3  0 44 30.0010000  0  6G 5G 6G 8G10G24G30
   3501467.057 7   2727385.958 6  20981277.255    20981283.884          22.000
        20.500
  -1755312.951 6  -1366823.723 6  23059981.466    23059988.704          13.500
        12.750
   6167025.554 4   4788660.644 5  23885815.044    23885824.540           7.000
         8.250
   -271809.016 6   -211797.319 6  21579151.435    21579158.759          17.000
        21.000
   5111909.543 6   3981373.148 6  21726163.653    21726170.700          19.500
        19.250
  -1033217.964 7   -805103.011 6  21315395.411    21315401.255          20.250
        20.000
 99  3  3  0 44 45.0010000  0  6G 5G 6G 8G10G24G30
   3539568.576 7   2757075.452 6  20988527.700    20988534.224          22.000
        20.500
  -1769835.374 6  -1378139.865 6  23057218.028    23057225.114          13.750
        12.750
   6227941.258 4   4836127.385 5  23897406.997    23897416.380           7.000
         8.250
   -266971.227 6   -208027.589 6  21580072.161    21580079.528          17.250
        21.000
   5159763.500 6   4018661.951 6  21735269.903    21735277.071          19.500
        19.000
  -1035240.284 7   -806678.833 6  21315010.544    21315016.399          20.250
        20.000
 99  3  3  0 45  0.0010000  0  6G 5G 6G 8G10G24G30
   3577783.253 7   2786853.113 6  20995799.833    20995806.341          22.000
        20.250
  -1784349.997 6  -1389449.941 6  23054455.896    23054463.021          13.750
        12.750
   6288877.895 4   4883610.443 5  23909003.099    23909012.466           7.000
         8.250
   -261991.676 6   -204147.399 6  21581019.810    21581027.017          17.250
        21.000
   5207667.305 6   4055989.590 6  21744385.755    21744392.798          19.500
        18.750
  -1037140.212 7   -808159.285 6  21314649.021    21314654.970          20.250
        20.000
 99  3  3  0 45 15.0010000  0  6G 5G 6G 8G10G24G30
   3616111.730 7   2816719.451 6  21003093.458    21003099.962          22.000
        20.250
  -1798853.337 6  -1400751.223 6  23051695.911    23051703.165          13.750
        12.750
   6349839.654 4   4931113.071 5  23920603.677    23920613.446           7.250
         8.250
   -256865.908 6   -200153.269 6  21581995.122    21582002.282          17.500
        21.000
   5255625.863 6   4093359.892 6  21753511.872    21753518.974          19.500
        18.750
  -1038917.670 7   -809544.307 6  21314310.872    21314316.700          20.250
        20.000
 99  3  3  0 45 30.0010000  0  6G 5G 6G 8G10G24G30
   3654556.605 7   2846676.487 6  21010409.122    21010415.720          22.000
        20.250
  -1813343.729 6  -1412042.416 6  23048938.536    23048945.724          14.000
        12.750
   6410829.511 4   4978637.599 5  23932209.747    23932219.274           7.250
         8.500
   -251589.977 6   -196042.135 6  21582999.114    21583006.282          17.500
        21.250
   5303644.880 6   4130777.307 6  21762649.771    21762656.899          19.250
        18.750
  -1040571.486 7   -810832.985 6  21313996.138    21314002.005          20.500
        20.000
 99  3  3  0 45 45.0010000  0  6G 5G 6G 8G10G24G30
   3693117.692 7   2876724.082 6  21017747.192    21017753.552          22.000
        20.250
  -1827826.339 6  -1423327.547 6  23046182.669    23046189.856          14.000
        12.500
   6471843.882 4   5026181.227 5  23943820.317    23943829.997           7.250
         8.250
   -246163.861 6   -191813.969 6  21584031.638    21584038.833          17.500
        21.000
   5351726.422 6   4168243.442 6  21771799.333    21771806.399          19.250
        18.500
  -1042103.679 7   -812026.893 6  21313704.560    21313710.392          20.250
        20.000
 99  3  3  0 46  0.0010000  0  6G 5G 6G 8G10G24G30
   3731801.410 7   2906867.236 6  21025108.505    21025114.923          22.000
        20.250
  -1842298.301 6  -1434604.374 6  23043428.716    23043435.911          14.000
        12.500
   6532883.758 4   5073744.714 5  23955435.935    23955445.595           7.250
         8.250
   -240583.263 6   -187465.430 6  21585093.583    21585100.755          17.750
        21.000
   5399874.113 6   4205761.127 6  21780961.442    21780968.321          19.500
        18.250
  -1043514.118 7   -813125.920 6  21313436.114    21313442.036          20.250
        20.000
 99  3  3  0 46 15.0010000  0  6G 5G 6G 8G10G24G30
   3770612.086 7   2937109.318 6  21032493.935    21032500.368          22.000
        20.250
  -1856760.265 6  -1445873.414 6  23040676.661    23040683.821          14.000
        12.750
   6593946.735 4   5121326.215 5  23967055.911    23967065.286           7.250
         8.000
   -234851.190 6   -182998.858 6  21586184.364    21586191.474          17.750
        21.000
   5448084.025 6   4243327.295 6  21790135.599    21790142.450          19.250
        18.250
  -1044802.886 7   -814130.145 6  21313190.864    21313196.728          20.250
        20.000
 99  3  3  0 46 30.0010000  0  6G 5G 6G 8G10G24G30
   3809547.855 7   2967448.865 6  21039903.130    21039909.431          22.000
        20.000
  -1871214.437 6  -1457136.390 6  23037926.028    23037933.165          14.250
        12.500
   6655034.124 4   5168926.733 5  23978680.317    23978689.653           7.250
         8.000
   -228970.753 6   -178416.676 6  21587303.333    21587310.403          17.750
        21.000
   5496347.599 6   4280935.271 6  21799319.755    21799326.583          19.250
        18.000
  -1045969.013 7   -815038.808 6  21312968.888    21312974.845          20.000
        20.000
 99  3  3  0 46 45.0010000  0  6G 5G 6G 8G10G24G30
   3848610.142 7   2997887.004 6  21047336.427    21047342.790          22.000
        20.000
  -1885661.404 6  -1468393.737 6  23035176.942    23035183.958          14.250
        12.750
   6716150.644 4   5216549.953 5  23990310.450    23990319.938           7.000
         8.000
   -222940.565 6   -173717.805 6  21588451.005    21588457.923          18.000
        21.000
   5544664.757 6   4318585.002 6  21808514.356    21808521.130          19.250
        18.000
  -1047011.182 7   -815850.876 6  21312770.560    21312776.528          20.250
        20.000
 99  3  3  0 47  0.0010000  0  6G 5G 6G 8G10G24G30
   3887801.630 7   3028425.822 6  21054794.325    21054800.685          22.000
        20.000
  -1900100.056 6  -1479644.608 6  23032429.341    23032436.372          14.250
        12.750
   6777297.364 4   5264196.708 5  24001946.528    24001956.231           7.250
         8.000
   -216759.101 6   -168901.059 6  21589627.216    21589634.271          18.000
        21.000
   5593035.944 6   4356276.840 6  21817718.864    21817725.665          19.250
        18.000
  -1047924.987 7   -816562.922 6  21312596.630    21312602.536          20.250
        20.000
 99  3  3  0 47 15.0010000  0  6G 5G 6G 8G10G24G30
   3927124.647 7   3059067.132 6  21062277.364    21062283.739          22.250
        20.000
  -1914529.753 6  -1490888.508 6  23029683.403    23029690.567          14.000
        12.750
   6838476.260 4   5311868.517 5  24013588.388    24013597.958           7.000
         8.000
   -210427.207 6   -163967.092 6  21590832.239    21590839.157          18.250
        21.000
   5641457.127 6   4394007.629 6  21826933.286    21826940.173          19.250
        18.000
  -1048707.988 7   -817173.038 6  21312447.638    21312453.521          20.250
        20.000
 99  3  3  0 47 30.0010000  0  6G 5G 6G 8G10G24G30
   3966580.463 7   3089811.920 6  21069785.388    21069791.802          22.000
        19.750
  -1928949.339 6  -1502124.517 6  23026939.380    23026946.556          14.000
        12.750
   6899688.862 4   5359566.615 5  24025236.442    24025246.353           6.750
         8.000
   -203945.155 6   -158916.119 6  21592065.771    21592072.626          18.500
        21.000
   5689924.758 6   4431774.612 6  21836156.364    21836163.122          19.250
        17.750
  -1049358.783 7   -817680.138 6  21312323.817    21312329.704          20.250
        20.000
 99  3  3  0 47 45.0010000  0  6G 5G 6G 8G10G24G30
   4006166.951 7   3120658.528 6  21077318.411    21077324.755          22.000
        20.000
  -1943359.802 6  -1513353.428 6  23024197.177    23024204.321          14.250
        12.750
   6960932.304 4   5407288.713 5  24036891.231    24036900.552           6.750
         8.000
   -197316.071 6   -153750.583 6  21593326.997    21593333.950          18.250
        21.000
   5738433.948 6   4469573.981 6  21845387.419    21845394.263          19.250
        17.750
  -1049877.392 7   -818084.241 6  21312224.989    21312230.849          20.250
        20.000
 99  3  3  0 48  0.0010000  0  6G 5G 6G 8G10G24G30
   4045879.361 7   3151603.263 6  21084875.450    21084881.880          22.250
        19.750
  -1957764.643 6  -1524577.951 6  23021455.856    23021463.118          14.000
        13.000
   7022204.760 4   5455033.447 5  24048550.396    24048560.618           6.500
         8.000
   -190545.128 6   -148474.494 6  21594615.583    21594622.517          18.250
        21.250
   5786977.078 6   4507399.801 6  21854624.833    21854631.634          19.000
        17.750
  -1050267.063 7   -818387.865 6  21312150.810    21312156.634          20.250
        20.000
 99  3  3  0 48 15.0010000  0  6G 5G 6G 8G10G24G30
   4085720.001 7   3182647.917 6  21092456.966    21092463.380          22.000
        20.000
  -1972158.614 6  -1535794.009 6  23018716.833    23018723.978          14.000
        13.000
   7083509.444 4   5502803.280 5  24060216.427    24060226.517           6.500
         7.750
   -183629.526 6   -143085.694 6  21595931.458    21595938.438          18.250
        21.250
   5835553.341 6   4545251.425 6  21863868.458    21863875.411          19.000
        17.750
  -1050522.841 7   -818587.160 6  21312102.177    21312107.974          20.250
        20.000
 99  3  3  0 48 30.0010000  0  6G 5G 6G 8G10G24G30
   4125683.642 7   3213788.411 6  21100061.896    21100068.306          22.250
        20.000
  -1986542.515 6  -1547002.220 6  23015979.606    23015986.696          14.250
        13.000
   7144844.734 4   5550596.954 5  24071888.341    24071898.052           6.250
         7.750
   -176568.925 6   -137583.908 6  21597275.122    21597282.013          18.250
        21.250
   5884162.653 6   4583128.806 6  21873118.552    21873125.364          19.000
        17.500
  -1050645.153 7   -818682.458 6  21312079.083    21312084.903          20.250
        20.000
 99  3  3  0 48 45.0010000  0  6G 5G 6G 8G10G24G30
   4165768.784 7   3245023.584 6  21107689.856    21107696.235          22.000
        20.000
  -2000913.152 6  -1558200.084 6  23013245.067    23013252.130          14.250
        13.250
   7206213.480 3   5598416.706 5  24083566.075    24083576.313           6.000
         7.750
   -169359.557 6   -131966.192 6  21598647.114    21598653.942          18.250
        21.250
   5932812.097 6   4621037.469 6  21882376.224    21882383.001          18.750
        17.500
  -1050636.156 7   -818675.433 6  21312080.771    21312086.700          20.250
        20.000
 99  3  3  0 49  0.0010000  0  6G 5G 6G 8G10G24G30
   4205974.024 7   3276352.345 6  21115340.630    21115347.044          22.000
        20.000
  -2015271.637 6  -1569388.488 6  23010512.771    23010520.001          14.500
        13.250
   7267610.365 4   5646258.392 5  24095249.872    24095259.833           6.250
         7.750
   -162004.840 6   -126235.223 6  21600046.341    21600053.392          18.250
        21.250
   5981499.861 6   4658975.980 6  21891641.091    21891647.903          18.750
        17.000
  -1050499.363 7   -818568.826 6  21312106.692    21312112.599          20.250
        20.250
 99  3  3  0 49 15.0010000  0  6G 5G 6G 8G10G24G30
   4246298.510 7   3307774.017 6  21123013.950    21123020.411          22.000
        20.000
  -2029620.030 6  -1580569.030 6  23007782.271    23007789.415          14.500
        13.250
   7329033.821 4   5694120.778 5  24106938.341    24106948.485           6.250
         7.750
   -154505.370 6   -120391.456 6  21601473.560    21601480.560          18.250
        21.250
   6030223.444 6   4696942.410 6  21900912.880    21900919.661          18.750
        17.000
  -1050234.939 7   -818362.765 6  21312157.013    21312162.903          20.250
        20.250
 99  3  3  0 49 30.0010000  0  6G 5G 6G 8G10G24G30
   4286742.935 7   3339289.152 6  21130710.411    21130716.778          21.750
        20.000
  -2043961.610 6  -1591744.259 6  23005053.138    23005060.271          14.500
        13.500
   7390483.218 4   5742003.367 5  24118631.872    24118641.751           6.250
         7.750
   -146863.227 6   -114436.521 6  21602927.802    21602934.743          18.250
        21.250
   6078983.618 6   4734937.343 6  21910191.599    21910198.442          18.750
        17.000
  -1049843.908 7   -818058.050 6  21312231.458    21312237.399          20.250
        20.250
 99  3  3  0 49 45.0010000  0  6G 5G 6G 8G10G24G30
   4327311.821 7   3370901.271 6  21138430.435    21138436.798          21.750
        20.000
  -2058294.056 6  -1602912.365 6  23002325.677    23002332.958          14.500
        13.500
   7451958.684 4   5789906.284 5  24130330.130    24130339.700           6.250
         7.500
   -139075.614 6   -108368.223 6  21604409.739    21604416.771          18.250
        21.500
   6127785.937 6   4772965.128 6  21919478.567    21919485.286          18.750
        17.000
  -1049322.250 7   -817651.555 6  21312330.708    21312336.665          20.250
        20.250
 99  3  3  0 50  0.0010000  0  6G 5G 6G 8G10G24G30
   4368006.688 7   3402611.550 6  21146174.380    21146180.860          21.750
        20.000
  -2072621.673 6  -1614076.723 6  22999599.333    22999606.415          14.500
        13.500
   7513457.602 4   5837827.471 5  24142033.294    24142043.017           6.250
         7.500
   -131144.292 6   -102187.954 6  21605918.958    21605926.036          18.000
        21.500
   6176631.231 6   4811026.395 6  21928773.333    21928780.146          18.500
        16.750
  -1048672.225 7   -817145.027 6  21312454.403    21312460.388          20.250
        20.250
 99  3  3  0 50 15.0010000  0  6G 5G 6G 8G10G24G30
   4408832.111 7   3434423.565 6  21153943.138    21153949.599          21.500
        20.250
  -2086941.663 6  -1625235.119 6  22996874.231    22996881.419          14.500
        13.750
   7574982.939 4   5885769.225 5  24153741.349    24153750.888           6.250
         7.500
   -123065.914 6    -95893.089 6  21607456.208    21607463.243          18.000
        21.500
   6225523.172 6   4849124.010 6  21938077.200    21938083.856          18.750
        16.750
  -1047890.872 7   -816536.162 6  21312602.880    21312608.798          20.250
        20.250
 99  3  3  0 50 30.0010000  0  6G 5G 6G 8G10G24G30
   4449786.079 7   3466335.743 6  21161736.466    21161742.978          21.250
        20.250
  -2101254.878 6  -1636388.241 6  22994150.575    22994157.763          14.500
        14.000
   7636531.314 4   5933728.951 5  24165453.583    24165463.442           6.500
         7.500
   -114842.832 6    -89485.474 6  21609021.028    21609028.048          18.000
        21.250
   6274463.267 6   4887259.147 6  21947390.028    21947396.720          18.500
        16.500
  -1046980.551 7   -815826.809 6  21312776.294    21312782.146          20.500
        20.250
 99  3  3  0 50 45.0010000  0  6G 5G 6G 8G10G24G30
   4490869.624 7   3498348.889 6  21169554.364    21169560.888          21.250
        20.250
  -2115557.801 6  -1647533.344 6  22991428.653    22991435.911          14.500
        14.000
   7698108.619 4   5981711.220 5  24177171.591    24177181.353           7.000
         7.750
   -106475.248 6    -82965.251 6  21610613.294    21610620.216          18.000
        21.250
   6323456.713 6   4925435.863 6  21956713.231    21956719.962          18.500
        16.500
  -1045938.542 7   -815014.843 6  21312974.591    21312980.431          20.500
        20.250
 99  3  3  0 51  0.0010000  0  6G 5G 6G 8G10G24G30
   4532083.748 7   3530463.792 6  21177397.146    21177403.728          21.250
        20.250
  -2129852.930 6  -1658672.374 6  22988708.333    22988715.614          14.500
        14.000
   7759711.320 4   6029713.275 5  24188894.161    24188903.810           7.250
         7.500
    -97968.300 6    -76336.440 6  21612232.036    21612239.071          17.750
        21.250
   6372498.803 6   4963650.474 6  21966045.622    21966052.341          18.500
        16.500
  -1044764.920 7   -814100.315 6  21313197.903    21313203.798          20.750
        20.250
 99  3  3  0 51 15.0010000  0  6G 5G 6G 8G10G24G30
   4573427.789 7   3562679.918 6  21185264.458    21185271.103          21.250
        20.250
  -2144140.979 6  -1669805.887 6  22985989.544    22985996.642          14.750
        14.000
   7821336.241 4   6077732.646 5  24200621.052    24200630.560           7.250
         7.500
    -89321.270 6    -69598.481 6  21613877.396    21613884.399          17.750
        21.250
   6421587.422 6   5001901.354 6  21975386.856    21975393.610          18.250
        16.500
  -1043456.595 7   -813080.831 6  21313446.950    21313452.767          20.750
        20.250
 99  3  3  0 51 30.0010000  0  6G 5G 6G 8G10G24G30
   4614899.320 7   3594995.391 6  21193156.286    21193163.017          21.000
        20.500
  -2158420.722 6  -1680932.936 6  22983272.138    22983279.271          14.750
        14.250
   7882982.905 4   6125768.952 5  24212351.942    24212361.692           7.250
         7.500
    -80536.885 6    -62753.480 6  21615549.067    21615556.032          17.750
        21.250
   6470724.211 6   5040189.764 6  21984737.388    21984743.974          18.500
        16.500
  -1042013.976 7   -811956.704 6  21313721.349    21313727.149          21.000
        20.250
 99  3  3  0 51 45.0010000  0  6G 5G 6G 8G10G24G30
   4656496.599 7   3627408.852 6  21201072.099    21201078.681          21.000
        20.500
  -2172689.332 6  -1692051.306 6  22980556.942    22980564.099          14.750
        14.000
   7944650.136 4   6173821.291 5  24224086.981    24224096.638           7.250
         7.750
    -71616.571 6    -55802.568 6  21617246.474    21617253.560          17.750
        21.250
   6519906.977 6   5078513.997 6  21994096.513    21994103.278          18.500
        16.250
  -1040438.876 7   -810729.340 6  21314021.177    21314026.919          21.000
        20.250
 99  3  3  0 52  0.0010000  0  6G 5G 6G 8G10G24G30
   4698216.592 7   3659917.934 6  21209011.192    21209017.774          21.000
        20.500
  -2186944.301 6  -1703159.041 6  22977844.247    22977851.399          14.750
        14.250
   8006338.730 4   6221890.274 5  24235825.989    24235836.032           7.250
         7.750
    -62558.498 6    -48744.309 6  21618970.333    21618977.302          17.750
        21.500
   6569134.379 6   5116873.018 6  22003464.052    22003470.778          18.500
        16.250
  -1038731.701 7   -809399.056 6  21314346.153    21314351.903          21.000
        20.500
 99  3  3  0 52 15.0020000  0  6G 5G 6G 8G10G24G30
   4740058.644 7   3692522.126 6  21216973.432    21216980.088          21.000
        20.250
  -2201185.625 6  -1714256.153 6  22975134.018    22975141.260          14.750
        14.500
   8068056.677 5   6269982.128 5  24247570.908    24247580.400           7.500
         7.750
    -53358.981 6    -41575.837 6  21620720.846    21620727.779          18.000
        21.250
   6618411.484 6   5155270.757 6  22012841.205    22012848.021          18.500
        16.250
  -1036892.583 7   -807965.970 6  21314696.025    21314701.779          21.000
        20.250
 99  3  3  0 52 30.0020000  0  6G 5G 6G 8G10G24G30
   4782010.602 7   3725211.959 6  21224956.807    21224963.186          21.250
        20.250
  -2215412.292 6  -1725341.832 6  22972426.814    22972433.986          15.000
        14.250
   8129791.316 4   6318087.003 5  24259318.439    24259328.408           6.750
         7.500
    -44021.597 6    -34299.937 6  21622497.674    21622504.615          18.000
        21.250
   6667727.724 6   5193698.999 6  22022225.932    22022232.600          18.500
        16.500
  -1034923.141 7   -806431.329 6  21315070.775    21315076.572          20.750
        20.250
 99  3  3  0 52 45.0020000  0  6G 5G 6G 8G10G24G30
   4824074.859 7   3757989.295 6  21232961.260    21232967.693          21.250
        20.250
  -2229624.264 6  -1736416.082 6  22969722.307    22969729.604          14.500
        14.250
   8191545.435 5   6366207.022 5  24271069.861    24271079.443           7.750
         8.250
    -34544.235 6    -26914.966 6  21624301.127    21624308.150          18.000
        21.250
   6717085.480 6   5232159.588 6  22031618.322    22031625.166          18.500
        16.750
  -1032820.938 7   -804793.235 6  21315470.807    21315476.576          21.000
        20.250
 99  3  3  0 53  0.0020000  0  6G 5G 6G 8G10G24G30
   4866255.280 7   3790857.154 6  21240987.955    21240994.428          21.250
        20.250
  -2243820.943 6  -1747478.385 6  22967020.736    22967027.951          14.500
        14.250
   8253319.557 4   6414342.656 5  24282824.822    24282834.717           7.250
         8.000
    -24921.134 6    -19416.423 6  21626132.338    21626139.240          18.000
        21.000
   6766484.266 6   5270652.155 6  22041018.572    22041025.447          18.500
        16.500
  -1030580.444 7   -803047.386 6  21315897.127    21315902.893          21.250
        20.250
 99  3  3  0 53 15.0020000  0  6G 5G 6G 8G10G24G30
   4908550.652 7   3823814.580 6  21249036.463    21249042.893          21.500
        19.750
  -2258005.009 6  -1758530.891 6  22964321.744    22964328.854          15.000
        14.500
   8315108.379 4   6462489.751 5  24294582.854    24294592.881           6.500
         8.000
    -15149.424 6    -11802.088 6  21627991.830    21627998.736          18.000
        21.250
   6815921.627 6   5309174.765 6  22050426.229    22050432.889          18.750
        16.500
  -1028202.858 7   -801194.715 6  21316349.541    21316355.326          21.000
        20.250
 99  3  3  0 53 30.0020000  0  6G 5G 6G 8G10G24G30
   4950959.313 7   3856860.285 6  21257106.627    21257113.064          21.500
        19.750
  -2272175.121 6  -1769572.508 6  22961625.189    22961632.236          15.000
        14.750
   8376914.691 4   6510650.455 5  24306344.354    24306354.424           6.750
         8.250
     -5227.459 6     -4070.665 6  21629880.025    21629886.881          18.000
        21.250
   6865398.685 6   5347728.320 6  22059841.439    22059847.986          19.000
        16.500
  -1025687.576 7   -799234.737 6  21316828.143    21316833.947          20.750
        20.000
 99  3  3  0 53 45.0020000  0  6G 5G 6G 8G10G24G30
   4993484.196 7   3889996.558 6  21265198.822    21265205.229          21.500
        19.750
  -2286329.767 6  -1780602.078 6  22958931.635    22958938.697          15.250
        14.750
   8438740.751 4   6558826.541 5  24318109.580    24318119.682           6.750
         8.250
      4846.090 6      3778.869 6  21631796.994    21631803.795          18.000
        21.250
   6914914.395 6   5386311.997 6  22069264.018    22069270.600          19.250
        16.500
  -1023033.279 7   -797166.443 6  21317333.213    21317339.092          21.000
        20.250
 99  3  3  0 54  0.0020000  0  6G 5G 6G 8G10G24G30
   5036125.241 7   3923223.345 6  21273313.143    21273319.432          21.500
        20.000
  -2300471.480 6  -1791621.576 6  22956240.604    22956247.732          15.250
        14.500
   8500584.874 4   6607016.727 5  24329878.229    24329888.127           6.750
         8.500
     15073.055 6     11747.954 6  21633742.854    21633749.811          18.000
        21.250
   6964466.233 6   5424923.812 6  22078693.275    22078700.041          18.500
        16.500
  -1020242.047 7   -794991.446 6  21317864.439    21317870.123          21.000
        20.000
 99  3  3  0 54 15.0020000  0  6G 5G 6G 8G10G24G30
   5078880.258 7   3956538.941 6  21281449.213    21281455.576          21.500
        20.000
  -2314603.048 6  -1802633.157 6  22953551.518    22953558.646          15.250
        14.500
   8562442.950 4   6655217.762 5  24341649.260    24341659.381           6.500
         8.250
     25450.705 6     19834.455 6  21635717.814    21635724.693          18.000
        21.250
   7014055.260 6   5463564.616 6  22088129.924    22088136.607          18.750
        16.250
  -1017316.370 7   -792711.682 6  21318421.135    21318426.822          21.000
        20.000
 99  3  3  0 54 30.0020000  0  6G 5G 6G 8G10G24G30
   5121754.449 7   3989947.407 6  21289607.986    21289614.342          21.500
        20.000
  -2328721.704 6  -1813634.687 6  22950864.846    22950871.869          15.500
        14.500
   8624314.973 4   6703429.668 5  24353423.244    24353433.424           6.500
         8.750
     35979.608 6     28038.815 6  21637721.291    21637728.154          18.000
        21.250
   7063682.535 6   5502235.224 6  22097573.588    22097580.436          18.500
        16.750
  -1014252.978 7   -790324.616 6  21319004.010    21319009.838          20.750
        20.000
 99  3  3  0 54 45.0020000  0  6G 5G 6G 8G10G24G30
   5164750.222 7   4023450.600 6  21297789.713    21297796.014          21.500
        20.000
  -2342829.046 6  -1824627.394 6  22948180.307    22948187.236          15.500
        14.500
   8686194.801 4   6751647.648 5  24365198.471    24365208.752           6.500
         8.750
     46656.378 6     36358.394 6  21639752.963    21639759.900          17.750
        21.250
   7113342.911 6   5540931.619 6  22107023.588    22107030.525          18.500
        16.500
  -1011053.119 7   -787831.217 6  21319612.900    21319618.713          20.750
        20.000
 99  3  3  0 55  0.0020000  0  6G 5G 6G 8G10G24G30
   5207872.592 7   4057052.451 6  21305995.643    21306001.994          21.500
        20.000
  -2356921.865 6  -1835608.785 6  22945498.486    22945505.330          15.750
        14.500
   8748088.337 4   6799876.317 5  24376976.369    24376986.771           6.500
         8.750
     57486.874 6     44797.766 6  21641813.971    21641820.967          17.750
        21.000
   7163042.006 6   5579658.191 6  22116481.002    22116487.732          18.500
        16.500
  -1007711.253 7   -785227.146 6  21320248.830    21320254.611          21.000
        20.250
 99  3  3  0 55 15.0020000  0  6G 5G 6G 8G10G24G30
   5251119.188 7   4090751.092 6  21314225.135    21314231.428          21.250
        20.000
  -2371000.312 6  -1846578.990 6  22942819.510    22942826.350          15.750
        14.500
   8809994.703 4   6848114.989 5  24388757.135    24388767.135           6.750
         8.500
     68470.514 6     53356.466 6  21643904.104    21643911.033          17.750
        21.250
   7212781.881 6   5618416.533 6  22125946.283    22125953.123          18.500
        16.750
  -1004231.696 7   -782515.796 6  21320911.111    21320916.850          21.000
        20.250
 99  3  3  0 55 30.0020000  0  6G 5G 6G 8G10G24G30
   5294490.648 7   4124547.040 6  21322478.463    21322484.783          21.500
        20.000
  -2385063.772 6  -1857537.500 6  22940143.182    22940150.006          15.500
        14.500
   8871915.267 4   6896364.755 5  24400540.143    24400550.471           6.500
         9.000
     79605.544 6     62033.131 6  21646022.971    21646029.807          17.750
        21.000
   7262562.616 6   5657206.719 6  22135419.408    22135426.303          18.750
        17.000
  -1000616.010 7   -779698.364 6  21321599.080    21321604.740          21.000
        20.000
 99  3  3  0 55 45.0020000  0  6G 5G 6G 8G10G24G30
   5337993.678 7   4158445.502 6  21330756.744    21330763.104          21.250
        20.250
  -2399107.601 6  -1868480.726 6  22937470.721    22937477.580          15.500
        14.500
   8933855.150 4   6944629.531 5  24412327.033    24412337.244           6.500
         9.000
     90894.767 6     70829.947 6  21648171.143    21648178.080          17.500
        21.000
   7312387.722 6   5696031.475 6  22144900.705    22144907.576          18.500
        17.000
   -996860.381 7   -776771.892 6  21322313.666    21322319.264          21.000
        20.000
 99  3  3  0 56  0.0020000  0  6G 5G 6G 8G10G24G30
   5381621.027 7   4192440.835 6  21339058.705    21339065.225          21.250
        20.250
  -2413141.990 6  -1879416.589 6  22934800.088    22934806.975          15.750
        14.500
   8995805.947 4   6992902.823 5  24424115.682    24424126.432           6.250
         9.000
    102329.896 6     79740.464 6  21650347.143    21650354.131          17.500
        21.000
   7362250.408 6   5734885.518 6  22154389.260    22154396.033          18.500
        16.750
   -992974.432 7   -773743.869 6  21323053.158    21323058.939          20.750
        20.000
 99  3  3  0 56 15.0020000  0  6G 5G 6G 8G10G24G30
   5425372.558 7   4226532.931 6  21347384.408    21347390.869          21.250
        20.250
  -2427165.969 6  -1890344.349 6  22932131.330    22932138.209          15.750
        14.500
   9057768.424 3   7041185.207 5  24435906.877    24435917.256           6.000
         8.750
    113913.061 6     88766.326 6  21652551.307    21652558.365          17.500
        21.250
   7412155.854 6   5773772.872 6  22163886.025    22163892.811          18.500
        17.000
   -988954.757 7   -770611.643 6  21323818.096    21323823.818          20.750
        20.000
 99  3  3  0 56 30.0020000  0  6G 5G 6G 8G10G24G30
   5469250.252 7   4260723.345 6  21355733.947    21355740.479          21.000
        20.500
  -2441177.619 6  -1901262.492 6  22929464.846    22929471.756          15.750
        14.500
   9119746.831 3   7089480.016 5  24447700.916    24447711.307           6.000
         8.500
    125647.173 6     97909.814 6  21654784.244    21654791.240          17.750
        21.250
   7462106.071 6   5812695.124 6  22173391.158    22173398.088          18.500
        17.000
   -984798.102 7   -767372.677 6  21324608.955    21324614.842          20.500
        20.000
 99  3  3  0 56 45.0020000  0  6G 5G 6G 8G10G24G30
   5513249.125 7   4295008.176 6  21364106.713    21364113.248          21.000
        20.500
  -2455184.119 6  -1912176.621 6  22926799.533    22926806.443          15.750
        14.500
   9181734.846 4   7137782.297 5  24459497.135    24459507.287           6.250
         9.000
    137530.158 6    107169.303 6  21657045.471    21657052.600          17.750
        21.250
   7512093.209 6   5851646.142 6  22182903.471    22182910.396          18.750
        17.000
   -980508.752 7   -764030.317 6  21325425.268    21325431.021          20.500
        20.000
 99  3  3  0 57  0.0020000  0  6G 5G 6G 8G10G24G30
   5557366.246 7   4329385.151 6  21372501.979    21372508.502          20.750
        20.500
  -2469184.064 6  -1923085.658 6  22924135.541    22924142.197          15.750
        14.250
   9243733.798 4   7186093.122 5  24471294.854    24471305.342           6.250
         8.750
    149563.846 6    116546.224 6  21659335.361    21659342.443          17.750
        21.250
   7562120.780 6   5890628.657 6  22192423.338    22192430.275          18.750
        17.250
   -976086.501 7   -760584.398 6  21326266.682    21326272.377          20.500
        20.000
 99  3  3  0 57 15.0020000  0  6G 5G 6G 8G10G24G30
   5601595.008 7   4363849.120 6  21380918.377    21380924.994          20.750
        20.500
  -2483181.363 6  -1933992.613 6  22921471.799    22921478.756          15.500
        14.500
   9305741.326 3   7234410.627 5  24483094.361    24483104.982           6.000
         8.750
    161743.564 6    126036.939 6  21661652.955    21661659.994          17.750
        21.250
   7612185.789 6   5929640.357 6  22201950.455    22201957.404          18.750
        17.250
   -971538.523 7   -757040.499 6  21327132.111    21327137.932          20.500
        20.000
 99  3  3  0 57 30.0020000  0  6G 5G 6G 8G10G24G30
   5645943.904 7   4398406.694 6  21389357.775    21389364.311          20.750
        20.500
  -2497168.714 6  -1944891.825 6  22918809.822    22918816.854          15.250
        14.500
   9367765.325 3   7282740.962 5  24494897.471    24494907.854           6.000
         8.250
    174074.628 6    135645.577 6  21663999.502    21664006.494          18.000
        21.250
   7662293.832 6   5968685.575 6  22211485.627    22211492.643          18.500
        17.250
   -966858.981 7   -753394.092 6  21328022.619    21328028.416          20.500
        20.250
 99  3  3  0 57 45.0020000  0  6G 5G 6G 8G10G24G30
   5690413.329 7   4433058.198 6  21397820.018    21397826.607          20.750
        20.500
  -2511146.436 6  -1955783.537 6  22916150.041    22916157.107          15.250
        14.500
   9429806.456 4   7331084.635 5  24506703.744    24506713.998           6.250
         8.500
    186553.854 6    145369.672 6  21666374.260    21666381.170          18.000
        21.250
   7712441.924 6   6007762.012 6  22221028.658    22221035.639          18.750
        17.500
   -962045.193 7   -749643.084 6  21328938.705    21328944.424          20.500
        20.250
 99  3  3  0 58  0.0020000  0  6G 5G 6G 8G10G24G30
   5734999.316 7   4467800.520 6  21406304.494    21406311.041          20.750
        20.750
  -2525116.887 6  -1966669.583 6  22913491.635    22913498.635          15.250
        14.500
   9491860.841 4   7379438.651 5  24518512.275    24518522.721           6.250
         8.250
    199177.189 6    155206.058 6  21668776.518    21668783.389          18.250
        21.250
   7762625.874 6   6046866.385 6  22230578.385    22230585.361          18.500
        17.250
   -957101.205 7   -745790.614 6  21329879.447    21329885.240          20.500
        20.250
 99  3  3  0 58 15.0020000  0  6G 5G 6G 8G10G24G30
   5779699.999 7   4502632.217 6  21414810.580    21414817.213          20.500
        20.750
  -2539078.430 6  -1977548.689 6  22910834.861    22910841.920          15.750
        14.500
   9553927.520 4   7427802.251 5  24530323.174    24530333.510           6.250
         8.250
    211943.844 6    165154.116 6  21671205.986    21671212.783          18.250
        21.250
   7812846.290 6   6085999.169 6  22240134.893    22240141.916          18.500
        17.500
   -952024.518 7   -741834.739 6  21330845.557    21330851.369          20.500
        20.250
 99  3  3  0 58 30.0020000  0  6G 5G 6G 8G10G24G30
   5824520.129 7   4537556.988 6  21423339.658    21423346.123          21.000
        20.500
  -2553025.401 6  -1988416.423 6  22908180.682    22908187.717          15.750
        14.500
   9616007.493 4   7476176.202 5  24542137.088    24542147.033           6.500
         7.750
    224859.460 6    175218.254 6  21673663.736    21673670.518          18.250
        21.250
   7863103.038 6   6125160.270 6  22249698.432    22249705.236          18.750
        17.000
   -946812.173 7   -737773.164 6  21331837.377    21331843.178          20.250
        20.000
 99  3  3  0 58 45.0020000  0  6G 5G 6G 8G10G24G30
   5869462.982 7   4572577.397 6  21431891.908    21431898.432          20.750
        20.750
  -2566958.905 6  -1999273.682 6  22905529.432    22905536.357          15.750
        14.500
   9678098.302 4   7524558.582 5  24553952.213    24553962.459           6.500
         7.750
    237922.912 6    185397.591 6  21676149.557    21676156.318          18.500
        21.250
   7913392.927 6   6164347.196 6  22259268.221    22259275.256          18.250
        17.500
   -941464.882 7   -733606.422 6  21332854.877    21332860.643          20.250
        20.250
 99  3  3  0 59  0.0020000  0  6G 5G 6G 8G10G24G30
   5914526.046 7   4607691.469 6  21440467.088    21440473.752          20.500
        20.750
  -2580877.968 6  -2010119.679 6  22902880.869    22902887.436          16.000
        14.500
   9740198.300 4   7572948.163 5  24565769.564    24565779.568           6.250
         7.500
    251130.619 6    195689.328 6  21678662.846    21678669.674          18.250
        21.250
   7963715.616 6   6203559.673 6  22268844.307    22268851.396          18.250
        17.500
   -935982.419 7   -729334.371 6  21333898.018    21333903.783          20.250
        20.250
 99  3  3  0 59 15.0020000  0  6G 5G 6G 8G10G24G30
   5959707.444 7   4642897.750 6  21449064.846    21449071.396          20.250
        20.750
  -2594784.105 6  -2020955.612 6  22900234.518    22900241.404          16.000
        14.500
   9802310.108 4   7621346.919 5  24577589.307    24577599.451           6.250
         7.750
    264479.470 6    206091.039 6  21681203.127    21681210.014          18.500
        21.500
   8014070.509 6   6242797.245 6  22278426.494    22278433.674          18.250
        17.500
   -930366.248 7   -724958.125 6  21334966.947    21334972.670          20.500
        20.250
 99  3  3  0 59 30.0020000  0  6G 5G 6G 8G10G24G30
   6005011.705 7   4678199.763 6  21457686.205    21457692.752          20.500
        21.000
  -2608676.309 6  -2031780.679 6  22897590.744    22897597.838          16.000
        14.750
   9864435.015 4   7669755.892 5  24589411.127    24589421.490           6.250
         7.500
    277972.050 6    216604.761 6  21683770.627    21683777.467          18.250
        21.250
   8064457.858 6   6282060.107 6  22288014.869    22288022.131          18.000
        17.500
   -924613.345 7   -720475.335 6  21336061.682    21336067.330          20.500
        20.250
 99  3  3  0 59 45.0020000  0  6G 5G 6G 8G10G24G30
   6050437.815 7   4713596.735 6  21466330.299    21466336.971          20.500
        21.000
  -2622555.502 6  -2042595.606 6  22894949.557    22894956.572          16.250
        14.750
   9926569.899 4   7718172.623 5  24601234.932    24601244.916           6.250
         7.500
    291607.753 6    227230.000 6  21686365.385    21686372.076          18.250
        21.250
   8114875.779 6   6321346.797 6  22297609.057    22297616.330          17.750
        17.500
   -918722.273 7   -715884.874 6  21337182.713    21337188.443          20.500
        20.250
 99  3  3  1  0  0.0020000  0  6G 5G 6G 8G10G24G30
   6095986.345 7   4749089.094 6  21474997.963    21475004.584          20.500
        21.000
  -2636420.818 6  -2053399.720 6  22892311.064    22892317.982          16.250
        14.750
   9988711.872 4   7766594.898 5  24613060.400    24613070.752           6.250
         7.500
    305389.261 6    237968.858 6  21688987.932    21688994.721          18.250
        21.000
   8165326.360 6   6360658.938 6  22307209.432    22307216.826          17.500
        17.500
   -912692.415 7   -711186.274 6  21338330.150    21338335.783          20.500
        20.250
 99  3  3  1  0 15.0020000  0  6G 5G 6G 8G10G24G30
   6141651.025 7   4784671.964 6  21483687.736    21483694.326          20.250
        20.750
  -2650274.608 6  -2064194.859 6  22889674.838    22889681.596          16.250
        14.750
  10050855.311 4   7815018.299 5  24624886.064    24624896.244           6.250
         7.500
    319318.066 6    248822.496 6  21691638.533    21691645.111          18.500
        21.000
   8215811.434 6   6399997.950 6  22316816.744    22316823.998          17.750
        17.750
   -906525.564 7   -706380.922 6  21339503.689    21339509.479          20.500
        20.500
 99  3  3  1  0 30.0020000  0  6G 5G 6G 8G10G24G30
   6187433.415 7   4820346.552 6  21492399.752    21492406.479          20.250
        21.000
  -2664115.026 6  -2074979.583 6  22887041.057    22887047.963          16.250
        15.000
  10113002.048 3   7863444.262 5  24636711.635    24636722.439           6.000
         7.500
    333398.654 6    259794.396 6  21694317.924    21694324.592          18.250
        20.750
   8266334.644 6   6439366.674 6  22326431.010    22326438.299          17.750
        17.750
   -900218.721 7   -701466.486 6  21340703.822    21340709.564          20.500
        20.500
 99  3  3  1  0 45.0020000  0  6G 5G 6G 8G10G24G30
   6233334.579 7   4856113.689 6  21501134.416    21501141.100          20.250
        21.000
  -2677939.148 6  -2085751.604 6  22884410.486    22884417.318          16.250
        15.000
  10175154.779 3   7911874.916 5  24648539.088    24648549.713           6.000
         7.250
    347632.935 6    270886.062 6  21697026.635    21697033.287          18.500
        20.750
   8316898.500 6   6478767.075 6  22336052.986    22336060.260          17.750
        17.500
   -893770.667 7   -696442.019 6  21341930.924    21341936.596          20.500
        20.500
 99  3  3  1  1  0.0020000  0  6G 5G 6G 8G10G24G30
   6279344.713 7   4891965.738 6  21509889.854    21509896.584          20.250
        21.000
  -2691752.045 6  -2096514.869 6  22881781.908    22881788.873          16.500
        15.000
  10237310.712 3   7960308.048 5  24660367.182    24660377.799           6.000
         7.250
    362013.668 6    282091.843 6  21699762.971    21699769.721          18.250
        20.750
   8367500.900 6   6518197.506 6  22345681.932    22345689.338          17.500
        17.500
   -887185.099 7   -691310.403 6  21343183.916    21343189.631          20.500
        20.500
 99  3  3  1  1 15.0020000  0  6G 5G 6G 8G10G24G30
   6325465.142 7   4927903.733 6  21518666.369    21518672.990          20.250
        21.000
  -2705547.317 6  -2107264.400 6  22879156.619    22879163.498          16.500
        15.250
  10299474.693 4   8008747.478 5  24672196.830    24672206.994           6.250
         7.000
    376547.498 6    293416.922 6  21702528.564    21702535.373          18.000
        20.500
   8418145.175 6   6557660.576 6  22355319.314    22355326.900          17.250
        17.500
   -880459.065 7   -686069.321 6  21344463.893    21344469.549          20.750
        20.500
 99  3  3  1  1 30.0020000  0  6G 5G 6G 8G10G24G30
   6371699.687 7   4963930.652 6  21527464.471    21527471.158          20.250
        21.000
  -2719324.058 6  -2117999.499 6  22876534.885    22876541.885          16.500
        15.250
  10361646.099 3   8057192.667 5  24684027.244    24684038.045           6.000
         7.500
    391237.716 6    304863.870 6  21705324.049    21705330.768          18.000
        20.750
   8468830.623 6   6597155.731 6  22364964.549    22364971.873          17.500
        17.500
   -873589.448 7   -680716.359 6  21345771.213    21345776.861          20.500
        20.500
 99  3  3  1  1 45.0020000  0  6G 5G 6G 8G10G24G30
   6418049.479 7   5000047.364 6  21536284.494    21536291.143          20.250
        21.000
  -2733078.315 6  -2128717.079 6  22873917.846    22873924.510          16.750
        15.250
  10423821.859 3   8105641.254 5  24695859.361    24695869.650           6.000
         7.000
    406085.775 6    316433.802 6  21708149.650    21708156.412          18.000
        21.000
   8519557.886 6   6636683.459 6  22374617.330    22374624.787          17.000
        17.000
   -866571.973 7   -675248.186 6  21347106.580    21347112.256          20.500
        20.250
 99  3  3  1  2  0.0020000  0  6G 5G 6G 8G10G24G30
   6464507.407 7   5036248.351 6  21545125.244    21545131.803          20.250
        21.000
  -2746813.954 6  -2139420.146 6  22871303.924    22871310.904          16.750
        15.500
  10485995.403 4   8154088.145 5  24707690.377    24707700.611           6.250
         7.000
    421083.504 6    328120.358 6  21711003.658    21711010.471          18.000
        21.000
   8570319.710 6   6676238.126 6  22384277.150    22384284.541          17.000
        17.000
   -859410.290 7   -669667.649 6  21348469.346    21348475.072          20.500
        20.500
 99  3  3  1  2 15.0020000  0  7G17G 5G 6G 8G10G24G30
    -23661.904 3    -10532.43615  25254039.541    25254049.803           5.000
         5.500
   6511074.004 7   5072534.014 6  21553986.518    21553993.092          20.250
        21.000
  -2760526.966 6  -2150105.584 6  22868694.385    22868701.279          16.750
        15.750
  10548170.891 4   8202536.518 5  24719522.002    24719532.639           6.500
         7.250
    436232.909 6    339925.107 6  21713886.549    21713893.244          18.000
        21.000
   8621118.321 6   6715821.452 6  22393943.775    22393951.350          16.750
        17.250
   -852100.888 7   -663971.998 6  21349860.260    21349865.959          20.500
        20.250
 99  3  3  1  2 30.0020000  0  7G17G 5G 6G 8G10G24G30
    -48986.399 3    -30265.711 5  25249220.244    25249230.967           5.000
         5.500
   6557749.609 7   5108904.608 6  21562868.596    21562875.236          20.250
        21.000
  -2774218.931 6  -2160774.622 6  22866088.807    22866095.744          16.750
        15.500
  10610350.453 4   8250988.075 5  24731354.689    24731365.178           6.250
         7.250
    451531.228 6    351845.895 6  21716797.541    21716804.471          18.000
        21.000
   8671948.805 6   6755429.615 6  22403616.275    22403623.783          16.750
        16.750
   -844645.973 7   -658162.966 6  21351279.010    21351284.529          20.500
        20.250
 99  3  3  1  2 45.0020000  0  7G17G 5G 6G 8G10G24G30
    -74279.547 3    -49974.588 5  25244407.104    25244417.561           5.250
         5.750
   6604538.347 7   5145363.370 6  21571772.150    21571778.760          20.250
        21.000
  -2787891.396 6  -2171428.460 6  22863487.166    22863494.084          17.000
        15.750
  10672536.790 4   8299444.904 5  24743188.166    24743198.955           6.250
         7.250
    466976.630 6    363881.288 6  21719736.752    21719743.525          18.000
        20.750
   8722807.381 6   6795059.673 6  22413294.525    22413301.904          16.750
        16.750
   -837048.785 7   -652243.065 6  21352724.643    21352730.279          20.500
        20.250
 99  3  3  1  3  0.0020000  0  7G17G 5G 6G 8G10G24G30
    -99538.884 3    -69657.078 5  25239600.486    25239611.014           5.500
         5.750
   6651440.114 7   5181910.199 6  21580697.299    21580703.889          20.250
        21.000
  -2801544.041 6  -2182066.861 6  22860889.064    22860895.986          16.750
        15.750
  10734731.948 3   8347908.618 5  24755023.768    24755034.225           6.000
         7.000
    482570.295 6    376032.216 6  21722704.111    21722710.834          18.000
        20.750
   8773692.965 6   6834710.771 6  22422977.736    22422985.232          16.750
        16.750
   -829307.757 7   -646211.091 6  21354197.619    21354203.205          20.500
        20.000
 99  3  3  1  3 15.0020000  0  7G17G 5G 6G 8G10G24G30
   -124767.231 3    -89315.464 5  25234799.486    25234809.842           5.500
         5.750
   6698454.437 7   5218544.736 6  21589643.799    21589650.451          20.250
        21.250
  -2815180.066 6  -2192692.300 6  22858294.143    22858301.061          16.750
        15.750
  10796932.569 4   8396376.562 5  24766860.283    24766870.756           6.250
         6.750
    498312.868 6    388299.177 6  21725699.830    21725706.615          18.000
        21.000
   8824600.908 6   6874379.291 6  22432664.986    22432672.389          16.750
        16.500
   -821423.705 7   -640067.663 6  21355697.963    21355703.584          20.500
        20.250
 99  3  3  1  3 30.0020000  0  7G17G 5G 6G 8G10G24G30
   -149963.001 3   -108948.427 5  25230004.877    25230015.494           5.500
         5.750
   6745584.010 7   5255269.078 6  21598612.314    21598618.920          20.250
        21.000
  -2828800.145 6  -2203305.328 6  22855702.275    22855709.271          16.750
        16.000
  10859137.376 4   8444847.803 5  24778697.604    24778707.885           6.250
         6.750
    514203.323 6    400681.367 6  21728723.822    21728730.498          18.250
        21.000
   8875529.840 6   6914064.174 6  22442356.619    22442364.010          16.750
        16.500
   -813398.273 7   -633814.067 6  21357225.275    21357230.857          20.500
        20.000
 99  3  3  1  3 45.0020000  0  7G17G 5G 6G 8G10G24G30
   -175128.379 3   -128557.732 5  25225215.955    25225226.541           5.750
         5.750
   6792825.967 7   5292080.993 6  21607602.119    21607608.744          20.250
        21.250
  -2842409.331 6  -2213909.858 6  22853112.635    22853119.557          17.000
        16.000
  10921341.372 3   8493318.390 5  24790534.439    24790544.943           6.000
         6.500
    530234.991 6    413173.591 6  21731774.510    21731781.158          18.250
        21.000
   8926477.415 6   6953763.583 6  22452051.611    22452059.006          16.750
        16.500
   -805237.026 7   -627454.645 6  21358778.236    21358783.768          20.500
        20.000
 99  3  3  1  4  0.0020000  0  6G17G 5G 6G10G24G30
   -200258.009 3   -148139.182 5  25220434.072    25220444.279           5.750
         5.750
   6840180.007 7   5328980.241 6  21616613.354    21616620.068          20.250
        21.000
  -2856006.134 6  -2224504.746 6  22850525.166    22850532.018          17.000
        16.000
    546408.497 6    425776.341 6  21734852.299    21734858.936          18.250
        21.000
   8977445.269 6   6993478.786 6  22461750.588    22461757.932          16.750
        16.250
   -796942.550 7   -620991.403 6  21360356.588    21360362.264          20.500
        20.000
 99  3  3  1  4 15.0020000  0  6G17G 5G 6G10G24G30
   -225346.170 3   -167688.326 5  25215659.939    25215670.189           6.000
         5.750
   6887649.761 7   5365969.666 6  21625646.525    21625653.080          20.000
        21.000
  -2869590.345 6  -2235089.816 6  22847940.182    22847947.068          16.750
        16.000
    562729.122 6    438493.728 6  21737957.963    21737964.639          18.250
        21.000
   9028435.758 6   7033211.633 6  22471453.611    22471460.947          16.750
        16.250
   -788514.601 7   -614424.164 6  21361960.182    21361965.877          20.250
        20.000
 99  3  3  1  4 30.0020000  0  6G17G 5G 6G10G24G30
   -250393.054 3   -187205.292 5  25210893.760    25210904.127           6.000
         5.750
   6935237.818 7   5403051.266 6  21634702.096    21634708.701          20.000
        21.000
  -2883164.261 6  -2245666.873 6  22845357.010    22845363.924          16.750
        16.000
    579200.236 6    451328.385 6  21741092.252    21741098.850          18.500
        21.000
   9079450.196 6   7072963.137 6  22481161.463    22481168.729          16.750
        16.250
   -779955.137 7   -607754.442 6  21363589.174    21363594.748          20.250
        20.000
 99  3  3  1  4 45.0020000  0  6G17G 5G 6G10G24G30
   -275402.391 4   -206693.027 5  25206134.330    25206144.584           6.250
         5.750
   6982941.076 7   5440222.630 6  21643779.721    21643786.420          20.000
        21.000
  -2896733.172 6  -2256240.027 6  22842774.854    22842781.697          16.750
        16.250
    595820.384 6    464279.156 6  21744254.877    21744261.623          18.500
        21.000
   9130484.236 6   7112729.915 6  22490872.994    22490880.146          17.000
        16.000
   -771268.518 7   -600985.640 6  21365242.127    21365247.756          20.250
        20.000
 99  3  3  1  5  0.0020000  0  6G17G 5G 6G10G24G30
   -300370.327 3   -226148.479 5  25201382.994    25201393.424           6.000
         5.750
   7030760.120 7   5477484.228 6  21652879.346    21652886.018          20.000
        21.000
  -2910291.746 6  -2266805.117 6  22840194.869    22840201.713          16.750
        16.000
    612595.192 6    477350.457 6  21747447.119    21747453.701          18.500
        21.000
   9181542.216 6   7152515.348 6  22500588.955    22500596.088          16.750
        16.000
   -762446.739 7   -594111.516 6  21366920.768    21366926.439          20.250
        20.000
 99  3  3  1  5 15.0020000  0  6G17G 5G 6G10G24G30
   -325297.130 3   -245571.896 5  25196639.439    25196650.018           6.000
         5.750
   7078693.776 7   5514835.125 6  21662000.846    21662007.518          20.000
        21.000
  -2923837.756 6  -2277360.433 6  22837617.174    22837624.045          16.750
        16.250
    629527.392 6    490544.398 6  21750669.119    21750675.771          18.500
        21.000
   9232625.040 6   7192320.148 6  22510309.541    22510316.822          17.000
        16.000
   -753486.373 7   -587129.408 6  21368625.830    21368631.572          20.250
        20.000
 99  3  3  1  5 30.0020000  0  6G17G 5G 6G10G24G30
   -350183.286 4   -264963.637 5  25191903.580    25191914.049           6.250
         6.000
   7126742.067 6   5552275.352 6  21671144.166    21671150.900          19.750
        20.500
  -2937372.650 6  -2287907.076 6  22835041.549    22835048.451          16.750
        16.250
    646612.531 6    503857.510 6  21753920.361    21753927.033          18.500
        21.000
   9283733.932 6   7232145.259 6  22520035.346    22520042.635          17.000
        16.000
   -744390.504 7   -580041.706 6  21370356.744    21370362.439          20.000
        20.000
 99  3  3  1  5 45.0020000  0  6G17G 5G 6G10G24G30
   -375023.271 3   -284319.406 5  25187176.729    25187187.037           6.000
         6.000
   7174908.653 6   5589807.755 6  21680310.111    21680316.705          19.750
        20.500
  -2950893.865 6  -2298443.069 6  22832468.533    22832475.436          16.750
        16.250
    663852.793 6    517291.500 6  21757201.049    21757207.709          18.500
        21.000
   9334876.361 6   7271996.501 6  22529767.572    22529774.744          17.000
        16.000
   -735155.103 7   -572845.276 6  21372114.166    21372119.877          20.000
        20.000
 99  3  3  1  6  0.0020000  0  6G17G 5G 6G10G24G30
   -399818.574 3   -303640.335 5  25182458.229    25182468.912           6.000
         6.250
   7223188.316 6   5627428.269 6  21689497.291    21689503.982          19.750
        20.500
  -2964403.132 6  -2308969.748 6  22829897.650    22829904.541          16.750
        16.250
    681248.757 6    530846.806 6  21760511.361    21760517.990          18.500
        21.000
   9386048.561 6   7311870.939 6  22539505.236    22539512.307          17.250
        16.000
   -725780.156 7   -565540.117 6  21373898.205    21373903.967          20.250
        20.250
 99  3  3  1  6 15.0020000  0  6G17G 5G 6G10G24G30
   -424567.317 3   -322924.986 5  25177748.658    25177759.049           6.000
         6.250
   7271583.380 6   5665138.706 6  21698706.643    21698713.154          19.750
        20.500
  -2977897.694 6  -2319484.968 6  22827329.713    22827336.436          16.750
        16.250
    698805.311 6    544527.257 6  21763852.275    21763858.877          18.500
        21.000
   9437254.702 6   7351771.822 6  22549249.557    22549256.732          17.500
        16.000
   -716259.320 7   -558121.273 6  21375709.877    21375715.510          20.250
        20.000
 99  3  3  1  6 30.0020000  0  6G17G 5G 6G10G24G30
   -449273.166 4   -342176.222 5  25173047.143    25173057.525           6.250
         6.250
   7320093.973 6   5702939.170 6  21707937.963    21707944.525          19.750
        20.500
  -2991376.893 6  -2329988.219 6  22824764.650    22824771.436          16.750
        16.250
    716522.397 6    558332.797 6  21767223.682    21767230.369          18.500
        21.000
   9488498.540 6   7391702.089 6  22559000.814    22559007.971          17.500
        16.000
   -706590.443 7   -550587.074 6  21377549.799    21377555.600          20.250
        20.250
 99  3  3  1  6 45.0020000  0  6G17G 5G 6G10G24G30
   -473939.996 4   -361397.047 5  25168353.564    25168363.584           6.250
         6.500
   7368716.288 6   5740826.691 6  21717190.385    21717196.967          19.750
        20.500
  -3004840.770 6  -2340479.529 6  22822202.611    22822209.408          16.750
        16.250
    734397.911 6    572261.782 6  21770625.268    21770631.900          18.500
        21.000
   9539780.150 6   7431661.776 6  22568759.447    22568766.607          17.500
        15.750
   -696773.203 7   -542937.270 6  21379417.994    21379423.717          20.250
        20.250
 99  3  3  1  7  0.0020000  0  6G17G 5G 6G10G24G30
   -498567.357 4   -380587.120 5  25163666.854    25163677.143           6.250
         6.250
   7417447.132 6   5778798.782 6  21726463.518    21726470.053          19.750
        20.250
  -3018288.457 6  -2350958.223 6  22819643.674    22819650.428          16.750
        16.250
    752427.976 6    586311.201 6  21774056.299    21774062.885          18.500
        21.000
   9591099.563 6   7471650.933 6  22578525.260    22578532.104          17.500
        15.750
   -686808.040 7   -535172.200 6  21381314.299    21381320.092          20.250
        20.500
 99  3  3  1  7 15.0020000  0  6G17G 5G 6G10G24G30
   -523154.082 4   -399745.532 5  25158987.854    25158998.361           6.250
         6.500
   7466287.391 6   5816856.126 6  21735757.635    21735764.139          19.750
        20.250
  -3031718.333 6  -2361423.037 6  22817087.939    22817094.736          16.750
        16.250
    770611.963 6    600480.555 6  21777516.564    21777523.248          18.500
        21.000
   9642460.557 6   7511672.489 6  22588299.072    22588306.084          17.500
        15.750
   -676694.116 7   -527291.216 6  21383238.908    21383244.666          20.500
        20.250
 99  3  3  1  7 30.0020000  0  6G17G 5G 6G10G24G30
   -547702.969 4   -418874.441 5  25154316.455    25154326.842           6.250
         6.500
   7515237.532 6   5854999.098 6  21745072.572    21745079.135          19.750
        20.250
  -3045132.528 6  -2371875.639 6  22814535.322    22814542.150          16.750
        16.250
    788943.620 6    614764.981 6  21781004.979    21781011.564          18.500
        21.000
   9693861.734 6   7551725.346 6  22598080.479    22598087.307          17.500
        15.750
   -666437.217 7   -519298.820 6  21385190.791    21385196.451          20.500
        20.500
 99  3  3  1  7 45.0020000  0  6G17G 5G 6G10G24G30
   -572217.694 4   -437976.745 5  25149651.557    25149662.002           6.250
         6.500
   7564295.528 6   5893226.110 6  21754407.932    21754414.502          19.500
        20.000
  -3058533.633 6  -2382318.034 6  22811985.143    22811991.975          17.000
        16.250
    807417.800 6    629160.461 6  21784520.361    21784527.111          18.250
        21.000
   9745301.434 6   7591808.233 6  22607868.916    22607875.814          17.500
        15.750
   -656038.758 7   -511196.115 6  21387169.611    21387175.205          20.750
        20.500
 99  3  3  1  8  0.0020000  0  6G17G 5G 6G10G24G30
   -596695.510 4   -457050.275 5  25144993.307    25145003.412           6.250
         6.750
   7613462.486 6   5931538.024 6  21763764.064    21763770.514          19.750
        20.000
  -3071915.574 6  -2392745.506 6  22809438.689    22809445.428          17.000
        16.250
    826039.249 6    643670.697 6  21788063.908    21788070.693          18.250
        21.000
   9796778.891 6   7631920.532 6  22617664.846    22617671.807          17.500
        15.750
   -645494.833 7   -502980.063 6  21389175.908    21389181.592          20.750
        20.500
 99  3  3  1  8 15.0020000  0  6G17G 5G 6G10G24G30
   -621140.426 3   -476098.166 5  25140341.213    25140351.646           6.000
         6.750
   7662736.868 6   5969933.648 6  21773140.768    21773147.225          19.500
        20.000
  -3085277.916 6  -2403157.700 6  22806895.908    22806902.643          17.000
        16.250
    844805.128 6    658293.473 6  21791634.877    21791641.623          18.250
        21.000
   9848290.237 6   7672059.239 6  22627467.127    22627474.107          17.500
        15.500
   -634806.769 7   -494651.689 6  21391209.752    21391215.393          20.750
        20.250
 99  3  3  1  8 30.0020000  0  6G17G 5G 6G10G24G30
   -645552.570 4   -495120.540 5  25135695.814    25135706.311           6.250
         6.750
   7712119.148 6   6008413.351 6  21782537.869    21782544.479          19.500
        20.000
  -3098620.662 6  -2413554.616 6  22804356.682    22804363.600          17.000
        16.250
    863714.053 6    673027.715 6  21795233.127    21795239.865          18.250
        21.000
   9899834.775 6   7712223.816 6  22637275.650    22637282.525          17.500
        15.500
   -623974.700 7   -486211.104 6  21393271.174    21393276.885          20.750
        20.500
 99  3  3  1  8 45.0020000  0  6G17G 5G 6G10G24G30
   -669932.377 4   -514117.683 5  25131056.432    25131066.693           6.250
         6.750
   7761607.271 6   6046975.528 6  21791955.064    21791961.584          19.500
        19.750
  -3111944.639 6  -2423936.919 6  22801821.182    22801828.021          17.000
        16.250
    882764.524 6    687872.259 6  21798858.314    21798864.998          18.250
        21.000
   9951407.727 6   7752410.526 6  22647089.705    22647096.686          17.250
        15.500
   -613000.993 7   -477660.159 6  21395359.385    21395364.904          20.750
        20.500
 99  3  3  1  9  0.0020000  0  6G17G 5G 6G10G24G30
   -694271.739 4   -533083.341 5  25126425.002    25126435.053           6.250
         6.750
   7811205.787 6   6085623.721 6  21801393.252    21801399.865          19.500
        20.000
  -3125245.601 6  -2434301.287 6  22799290.205    22799296.838          17.000
        16.500
    901960.147 6    702829.896 6  21802511.143    21802517.768          18.250
        20.750
  10003007.417 6   7792618.075 6  22656908.830    22656915.787          17.250
        15.500
   -601881.975 7   -468995.986 6  21397475.252    21397480.865          20.750
        20.500
 99  3  3  1  9 15.0020000  0  6G17G 5G 6G10G24G30
   -718572.384 3   -552018.796 5  25121800.572    25121810.900           6.000
         6.750
   7860916.005 6   6124358.955 6  21810852.861    21810859.377          19.500
        19.750
  -3138525.049 6  -2444648.886 6  22796763.260    22796769.951          17.250
        16.250
    921297.869 6    717898.271 6  21806190.838    21806197.412          18.250
        20.750
  10054630.762 6   7832844.057 6  22666732.354    22666739.291          17.000
        15.500
   -590618.923 7   -460219.567 6  21399618.533    21399624.170          20.750
        20.500
 99  3  3  1  9 30.0020000  0  6G17G 5G 6G10G24G30
   -742837.560 3   -570926.647 5  25117183.072    25117193.275           6.000
         6.750
   7910737.076 6   6163180.574 6  21820333.510    21820340.084          19.500
        19.750
  -3151784.245 6  -2454980.710 6  22794240.018    22794246.760          17.000
        16.250
    940775.527 6    733075.681 6  21809897.252    21809903.971          18.250
        20.750
  10106272.919 6   7873084.703 6  22676559.650    22676566.643          17.000
        15.250
   -579214.098 7   -451332.676 6  21401788.783    21401794.373          20.750
        20.500
 99  3  3  1  9 45.0020000  0  6G17G 5G 6G10G24G30
   -767066.548 3   -589806.288 5  25112572.307    25112582.623           6.000
         7.000
   7960668.567 6   6202088.227 6  21829835.104    21829841.654          19.500
        19.750
  -3165023.923 6  -2465297.319 6  22791720.502    22791727.217          17.250
        16.500
    960394.451 6    748363.163 6  21813630.760    21813637.381          18.250
        20.750
  10157928.663 6   7913335.921 6  22686389.408    22686396.396          17.000
        15.250
   -567667.392 7   -442335.236 6  21403986.025    21403991.693          20.750
        20.500
 99  3  3  1 10  0.0020000  0  6G17G 5G 6G10G24G30
   -791255.979 3   -608655.090 5  25107969.033    25107979.314           6.000
         7.000
   8010710.255 6   6241081.752 6  21839357.877    21839364.381          19.500
        20.000
  -3178242.620 6  -2475597.577 6  22789205.236    22789211.850          17.250
        16.500
    980159.720 6    763764.693 6  21817392.064    21817398.623          18.250
        20.750
  10209599.419 6   7953598.844 6  22696221.729    22696228.748          16.750
        15.250
   -555975.375 7   -433224.570 6  21406210.986    21406216.635          20.750
        20.500
 99  3  3  1 10 15.0020000  0  6G17G 5G 6G10G24G30
   -815405.539 3   -627472.836 5  25103373.596    25103383.635           6.000
         7.000
   8060861.505 6   6280160.648 6  21848901.252    21848907.756          19.500
        20.000
  -3191440.293 6  -2485881.458 6  22786693.713    22786700.342          17.500
        16.500
   1000073.278 6    779281.764 6  21821181.330    21821188.010          18.250
        20.750
  10261284.326 6   7993872.799 6  22706057.260    22706064.311          16.750
        15.250
   -544138.065 7   -424000.684 6  21408463.611    21408469.139          20.750
        20.500
 99  3  3  1 10 30.0020000  0  6G17G 5G 6G10G24G30
   -839517.573 4   -646261.348 5  25098785.197    25098795.268           6.250
         7.250
   8111122.881 6   6319325.356 6  21858465.721    21858472.311          19.750
        20.000
  -3204620.888 6  -2496152.029 6  22784185.455    22784192.178          17.500
        16.500
   1020133.634 6    794913.222 6  21824998.689    21825005.416          18.250
        21.000
  10312985.252 6   8034159.227 6  22715895.643    22715902.561          16.750
        15.250
   -532157.962 7   -414665.530 6  21410743.283    21410748.967          20.500
        20.500
 99  3  3  1 10 45.0020000  0  6G17G 5G 6G10G24G30
   -863587.150 3   -665016.763 5  25094204.650    25094214.912           6.000
         7.250
   8161500.857 6   6358580.926 6  21868052.408    21868058.893          19.500
        20.000
  -3217782.023 6  -2506407.431 6  22781681.064    22781687.811          17.500
        16.500
   1040347.594 6    810664.373 6  21828845.338    21828851.955          18.250
        20.750
  10364708.723 6   8074463.229 6  22725738.150    22725745.217          16.500
        15.250
   -520032.386 7   -405217.018 6  21413050.729    21413056.334          20.750
        20.500
 99  3  3  1 11  0.0020000  0  6G17G 5G 6G10G24G30
   -887615.419 3   -683740.002 5  25089632.111    25089642.252           6.000
         7.000
   8211994.772 6   6397926.834 6  21877661.041    21877667.537          19.500
        20.000
  -3230925.178 6  -2516648.833 6  22779179.932    22779186.670          17.500
        16.750
   1060712.791 6    826533.373 6  21832720.643    21832727.279          18.250
        20.750
  10416454.660 6   8114784.736 6  22735585.229    22735592.260          16.500
        15.250
   -507764.935 7   -395657.951 6  21415385.088    21415390.732          20.750
        20.500
 99  3  3  1 11 15.0020000  0  6G17G 5G 6G10G24G30
   -911602.890 4   -702431.440 5  25085067.572    25085077.463           6.250
         7.000
   8262603.980 6   6437362.578 6  21887291.674    21887298.213          19.500
        20.000
  -3244049.494 6  -2526875.560 6  22776682.502    22776689.256          17.500
        16.750
   1081226.767 6    842518.301 6  21836624.354    21836630.998          18.250
        20.750
  10468225.694 6   8155125.788 6  22745436.697    22745443.826          16.500
        15.250
   -495356.588 7   -385989.107 6  21417746.299    21417751.904          20.750
        20.500
 99  3  3  1 11 30.0020000  0  6G17G 5G 6G10G24G30
   -935549.373 4   -721090.952 5  25080510.627    25080520.510           6.250
         7.250
   8313328.900 6   6476888.490 6  21896944.221    21896950.709          19.500
        20.000
  -3257154.376 6  -2537087.132 6  22774188.588    22774195.311          17.500
        16.750
   1101891.845 6    858620.970 6  21840556.736    21840563.209          18.250
        20.750
  10520026.291 6   8195489.888 6  22755294.033    22755301.119          16.500
        15.250
   -482807.122 7   -376210.295 6  21420134.361    21420140.018          20.500
        20.500
 99  3  3  1 11 45.0020000  0  6G17G 5G 6G10G24G30
   -959448.549 4   -739713.600 5  25075962.713    25075972.408           6.250
         7.250
   8364171.331 6   6516505.972 6  21906619.189    21906625.740          19.500
        20.000
  -3270235.191 6  -2547279.958 6  22771699.400    22771706.291          17.500
        16.750
   1122713.114 6    874845.354 6  21844519.041    21844525.611          18.250
        20.750
  10571861.544 6   8235880.993 6  22765158.057    22765165.068          16.250
        15.250
   -470112.627 7   -366318.473 6  21422550.010    21422555.697          20.500
        20.500
 99  3  3  1 12  0.0020000  0  6G17G 5G 6G10G24G30
   -983304.283 4   -758302.399 5  25071423.479    25071432.889           6.500
         7.250
   8415127.205 6   6556211.845 6  21916315.775    21916322.389          19.500
        20.000
  -3283294.078 6  -2557455.689 6  22769214.221    22769221.061          17.500
        16.750
   1143687.972 6    891189.412 6  21848510.322    21848516.932          18.500
        20.750
  10623734.080 6   8276301.150 6  22775029.127    22775036.217          16.250
        15.000
   -457273.936 7   -356314.282 6  21424993.166    21424998.768          20.500
        20.500
 99  3  3  1 12 15.0020000  0  6G17G 5G 6G10G24G30
  -1007117.706 4   -776858.222 5  25066891.455    25066901.229           6.250
         7.250
   8466194.922 6   6596004.878 6  21926033.572    21926040.104          19.500
        20.250
  -3296328.450 6  -2567612.319 6  22766733.877    22766740.701          17.500
        16.750
   1164815.975 6    907652.798 6  21852530.893    21852537.404          18.500
        20.750
  10675648.536 6   8316753.962 6  22784907.939    22784915.096          16.250
        15.000
   -444289.113 7   -346196.235 6  21427464.174    21427469.760          20.500
        20.500
 99  3  3  1 12 30.0020000  0  6G17G 5G 6G10G24G30
  -1030888.187 4   -795380.585 5  25062367.807    25062377.877           6.250
         7.250
   8517377.417 6   6635887.337 6  21935773.361    21935779.908          19.500
        20.000
  -3309335.601 6  -2577747.743 6  22764258.775    22764265.498          17.750
        16.750
   1186098.337 6    924236.471 6  21856580.713    21856587.295          18.500
        20.750
  10727607.016 6   8357241.090 6  22794795.432    22794802.580          16.250
        15.250
   -431159.298 7   -335965.197 6  21429962.377    21429968.033          20.500
        20.500
 99  3  3  1 12 45.0020000  0  6G17G 5G 6G10G24G30
  -1054617.887 4   -813871.188 5  25057852.447    25057861.908           6.250
         7.000
   8568669.788 6   6675855.425 6  21945533.939    21945540.537          19.500
        20.000
  -3322319.823 6  -2587865.295 6  22761787.963    22761794.807          17.750
        17.000
   1207531.437 6    940937.600 6  21860659.361    21860665.908          18.500
        20.750
  10779604.610 6   8397758.687 6  22804690.244    22804697.385          16.250
        15.000
   -417887.046 7   -325623.174 6  21432488.213    21432493.811          20.500
        20.500
 99  3  3  1 13  0.0020000  0  6G17G 5G 6G10G24G30
  -1078300.958 4   -832325.460 5  25053345.650    25053355.096           6.250
         7.000
   8620070.052 6   6715907.580 6  21955315.041    21955321.686          19.250
        20.000
  -3335275.431 6  -2597960.554 6  22759322.564    22759329.373          17.750
        17.000
   1229117.279 6    957757.748 6  21864766.947    21864773.564          18.500
        21.000
  10831640.454 6   8438306.093 6  22814592.377    22814599.459          16.000
        15.000
   -404467.863 7   -315166.664 6  21435041.822    21435047.357          20.750
        20.500
 99  3  3  1 13 15.0020000  0  6G17G 5G 6G10G24G30
  -1101938.957 4   -850744.598 5  25048847.314    25048856.916           6.500
         7.250
   8671574.477 6   6756040.898 6  21965116.002    21965122.561          19.250
        20.250
  -3348201.125 6  -2608032.507 6  22756862.877    22756869.561          18.000
        16.750
   1250853.679 6    974695.216 6  21868903.291    21868909.811          18.500
        20.750
  10883709.801 6   8478879.607 6  22824500.697    22824507.924          16.000
        15.000
   -390899.480 7   -304593.888 6  21437623.869    21437629.389          21.000
        20.250
 99  3  3  1 13 30.0020000  0  6G17G 5G 6G10G24G30
  -1125533.202 4   -869129.650 5  25044357.619    25044367.455           6.500
         7.250
   8723183.230 6   6796255.509 6  21974936.947    21974943.459          19.250
        20.250
  -3361098.480 6  -2618082.370 6  22754408.424    22754415.174          18.000
        17.000
   1272743.478 6    991752.211 6  21873068.697    21873075.275          18.500
        20.750
  10935811.094 6   8519478.014 6  22834415.439    22834422.400          16.000
        15.000
   -377179.950 7   -293903.336 6  21440234.463    21440239.936          20.750
        20.250
 99  3  3  1 13 45.0020000  0  6G17G 5G 6G10G24G30
  -1149087.589 4   -887483.647 5  25039875.158    25039884.639           6.500
         7.250
   8774893.139 6   6836548.942 6  21984777.033    21984783.494          19.250
        20.250
  -3373970.088 6  -2628112.176 6  22751959.236    22751965.936          18.000
        17.000
   1294786.363 6   1008928.491 6  21877263.268    21877269.947          18.500
        21.000
  10987942.311 6   8560099.736 6  22844335.557    22844342.635          16.000
        15.000
   -363307.967 7   -283093.991 6  21442874.150    21442879.643          21.000
        20.250
 99  3  3  1 14  0.0020000  0  6G17G 5G 6G10G24G30
  -1172604.609 4   -905808.525 5  25035399.799    25035409.732           6.250
         7.250
   8826703.279 6   6876920.482 6  21994636.119    21994642.623          19.250
        20.000
  -3386815.201 6  -2638121.334 6  22749514.955    22749521.533          18.000
        16.750
   1316984.096 6   1026225.435 6  21881487.299    21881493.900          18.500
        21.000
  11040102.177 6   8600743.784 6  22854261.221    22854268.432          15.750
        15.000
   -349281.710 7   -272164.433 6  21445543.275    21445548.768          20.750
        20.500
 99  3  3  1 14 15.0030000  0  6G17G 5G 6G10G24G30
  -1196085.052 4   -924104.879 5  25030931.624    25030941.577           6.250
         7.500
   8878616.513 6   6917372.360 6  22004514.882    22004521.429          19.250
        20.000
  -3399636.611 6  -2648112.019 6  22747075.093    22747081.718          18.250
        16.750
   1339338.681 6   1043644.605 6  21885741.304    21885747.890          18.500
        20.750
  11092291.324 6   8641410.654 6  22864192.710    22864199.753          16.000
        15.000
   -335099.652 7   -261113.466 6  21448242.265    21448247.714          21.000
        20.500
 99  3  3  1 14 30.0030000  0  6G17G 5G 6G10G24G30
  -1219524.601 4   -942369.376 5  25026471.265    25026480.858           6.250
         7.500
   8930624.611 6   6957898.150 6  22014411.812    22014418.296          19.000
        20.250
  -3412438.451 6  -2658087.459 6  22744638.835    22744645.452          18.000
        16.750
   1361844.343 6   1061181.490 6  21890023.921    21890030.612          18.500
        21.000
  11144495.194 6   8682088.987 6  22874126.437    22874133.722          15.750
        15.000
   -320768.634 7   -249946.434 6  21450969.202    21450974.729          21.000
        20.500
 99  3  3  1 14 45.0030000  0  6G17G 5G 6G10G24G30
  -1242918.836 4   -960598.586 5  25022019.413    25022028.979           6.250
         7.500
   8982735.270 6   6998503.853 6  22024327.858    22024334.452          18.750
        20.000
  -3425220.472 6  -2668047.461 6  22742206.554    22742213.144          18.000
        16.750
   1384504.685 6   1078838.904 6  21894336.022    21894342.636          18.500
        20.750
  11196718.566 6   8722782.520 6  22884064.413    22884071.565          15.750
        14.750
   -306286.018 7   -238661.276 6  21453725.124    21453730.722          20.750
        20.500
 99  3  3  1 15  0.0030000  0  6G17G 5G 6G10G24G30
  -1266265.776 4   -978790.937 5  25017576.429    25017585.972           6.250
         7.500
   9034947.378 6   7039188.619 6  22034263.546    22034270.104          18.750
        20.000
  -3437981.841 6  -2677991.360 6  22739778.132    22739784.819          18.000
        16.750
   1407318.213 6   1096615.691 6  21898677.272    21898684.003          18.500
        20.750
  11248961.062 6   8763490.951 6  22894005.788    22894012.819          15.750
        14.750
   -291649.251 7   -227255.988 6  21456510.444    21456515.995          20.750
        20.500
 99  3  3  1 15 15.0030000  0  6G17G 5G 6G10G24G30
  -1289571.610 4   -996951.243 5  25013141.538    25013151.265           6.500
         7.500
   9087259.901 6   7079951.616 6  22044218.296    22044224.917          18.750
        20.000
  -3450725.461 6  -2687921.432 6  22737353.046    22737359.628          18.250
        16.750
   1430279.631 6   1114507.709 6  21903046.663    21903053.452          18.500
        20.750
  11301219.044 6   8804211.461 6  22903950.147    22903957.276          15.750
        14.750
   -276865.215 7   -215735.955 6  21459323.733    21459329.335          20.750
        20.500
 99  3  3  1 15 30.0030000  0  6G17G 5G 6G10G24G30
  -1312837.088 4  -1015080.118 5  25008714.147    25008723.976           6.500
         7.750
   9139676.472 6   7120795.700 6  22054192.757    22054199.312          18.750
        20.000
  -3463451.336 6  -2697837.683 6  22734931.358    22734937.882          18.000
        16.750
   1453390.055 6   1132515.834 6  21907444.515    21907451.140          18.500
        20.750
  11353496.882 6   8844947.438 6  22913898.522    22913905.472          16.000
        14.500
   -261933.556 7   -204100.887 6  21462165.085    21462170.663          20.750
        20.250
 99  3  3  1 15 45.0030000  0  6G17G 5G 6G10G24G30
  -1336056.434 4  -1033173.040 5  25004295.772    25004305.179           6.500
         7.750
   9192201.696 6   7161724.444 6  22064188.116    22064194.737          18.500
        20.000
  -3476155.097 6  -2707736.698 6  22732513.819    22732520.417          18.000
        16.750
   1476652.691 6   1150642.568 6  21911871.233    21911877.913          18.500
        20.750
  11405801.969 6   8885704.648 6  22923851.444    22923858.546          16.000
        14.500
   -246852.099 7   -192349.102 6  21465034.952    21465040.491          20.750
        20.250
 99  3  3  1 16  0.0030000  0  6G17G 5G 6G10G24G30
  -1359231.753 4  -1051231.644 5  24999885.671    24999895.296           6.500
         7.750
   9244830.150 6   7202733.626 6  22074202.921    22074209.511          18.500
        20.000
  -3488839.985 6  -2717621.003 6  22730100.038    22730106.620          18.000
        16.750
   1500060.914 6   1168882.747 6  21916325.640    21916332.370          18.250
        20.750
  11458128.436 6   8926478.514 6  22933808.991    22933816.011          16.000
        14.500
   -231627.039 7   -180485.403 6  21467932.257    21467937.765          20.750
        20.500
 99  3  3  1 16 15.0030000  0  6G17G 5G 6G10G24G30
  -1382359.604 4  -1069253.268 5  24995484.530    24995494.116           6.750
         8.000
   9297564.304 6   7243825.180 6  22084237.851    22084244.476          18.500
        19.750
  -3501503.814 6  -2727488.907 6  22727690.171    22727696.753          18.000
        16.750
   1523613.025 6   1187235.044 6  21920807.515    21920814.147          18.250
        20.500
  11510473.809 6   8967267.114 6  22943770.101    22943777.210          16.000
        14.500
   -216262.491 7   -168513.026 6  21470856.030    21470861.593          20.750
        20.500
 99  3  3  1 16 30.0030000  0  6G17G 5G 6G10G24G30
  -1405437.672 4  -1087236.107 5  24991092.733    24991102.249           7.000
         8.000
   9350407.329 6   7285001.554 6  22094293.655    22094300.241          18.500
        19.750
  -3514145.117 6  -2737339.251 6  22725284.554    22725291.073          18.000
        16.750
   1547309.305 6   1205699.685 6  21925316.741    21925323.448          18.500
        20.500
  11562841.545 6   9008073.141 6  22953735.226    22953742.269          16.000
        14.500
   -200758.210 7   -156431.762 6  21473806.382    21473811.776          20.750
        20.250
 99  3  3  1 16 45.0030000  0  6G17G 5G 6G10G24G30
  -1428461.387 4  -1105176.573 5  24986711.858    24986721.050           7.000
         8.000
   9403366.335 6   7326268.317 6  22104371.187    22104377.819          18.500
        19.500
  -3526757.127 6  -2747166.770 6  22722884.444    22722891.026          18.000
        16.750
   1571155.477 6   1224281.122 6  21929854.444    21929861.101          18.250
        20.500
  11615237.779 6   9048901.377 6  22963705.983    22963713.022          16.000
        14.500
   -185111.513 7   -144239.517 6  21476783.655    21476789.202          20.750
        20.500
 99  3  3  1 17  0.0030000  0  6G17G 5G 6G10G24G30
  -1451435.663 4  -1123078.519 5  24982339.710    24982349.249           7.000
         8.000
   9456438.807 6   7367623.484 6  22114470.624    22114477.218          18.750
        19.500
  -3539339.350 6  -2756971.076 6  22720490.077    22720496.683          18.000
        16.750
   1595150.229 6   1242978.335 6  21934420.546    21934427.163          18.250
        20.500
  11667660.710 6   9089750.409 6  22973681.671    22973688.784          16.000
        14.250
   -169321.530 7   -131935.631 6  21479788.358    21479793.905          20.750
        20.500
 99  3  3  1 17 15.0030000  0  6G17G 5G 6G10G24G30
  -1474366.927 4  -1140946.945 5  24977975.702    24977985.136           6.750
         8.000
   9509620.944 6   7409064.115 6  22124591.022    22124597.526          18.750
        19.500
  -3551896.866 6  -2766756.136 6  22718100.593    22718107.081          18.000
        16.750
   1619292.666 6   1261790.627 6  21939014.679    21939021.292          18.250
        20.500
  11720105.553 6   9130616.523 6  22983661.601    22983668.538          16.000
        14.250
   -153389.726 7   -119521.225 6  21482820.179    21482825.753          20.750
        20.500
 99  3  3  1 17 30.0030000  0  6G17G 5G 6G10G24G30
  -1497255.505 4  -1158782.116 5  24973620.147    24973629.640           7.000
         8.000
   9562914.254 6   7450591.371 6  22134732.351    22134738.901          18.750
        19.500
  -3564430.348 6  -2776522.463 6  22715715.593    22715722.054          18.000
        16.750
   1643586.455 6   1280720.858 6  21943637.694    21943644.308          18.250
        20.250
  11772574.847 6   9171501.685 6  22993646.085    22993653.202          16.000
        14.250
   -137314.499 7   -106995.067 6  21485879.304    21485884.776          20.500
        20.500
 99  3  3  1 17 45.0030000  0  6G17G 5G 6G10G24G30
  -1520099.816 4  -1176582.796 5  24969273.030    24969282.292           7.000
         8.250
   9616316.897 6   7492203.819 6  22144894.562    22144901.069          18.750
        19.500
  -3576939.971 6  -2786270.200 6  22713335.046    22713341.511          18.000
        16.750
   1668034.047 6   1299770.929 6  21948289.843    21948296.327          18.250
        20.250
  11825070.800 6   9212407.623 6  23003635.858    23003642.901          16.000
        14.250
   -121093.699 7    -94355.479 6  21488966.007    21488971.526          20.750
        20.500
 99  3  3  1 18  0.0030000  0  6G17G 5G 6G10G24G30
  -1542899.882 4  -1194349.000 5  24964934.202    24964943.804           7.250
         8.250
   9669828.402 6   7533901.090 6  22155077.554    22155084.046          19.000
        19.250
  -3589427.464 6  -2796000.701 6  22710958.702    22710965.241          18.000
        16.750
   1692635.552 6   1318940.936 6  21952971.296    21952977.847          18.250
        20.250
  11877587.000 6   9253329.336 6  23013629.421    23013636.499          16.000
        14.250
   -104727.620 7    -81602.680 6  21492080.319    21492085.835          20.500
        20.500
 99  3  3  1 18 15.0030000  0  6G17G 5G 6G10G24G30
  -1565657.082 4  -1212081.805 5  24960603.726    24960612.968           7.250
         8.250
   9723446.409 6   7575681.359 6  22165280.538    22165287.042          19.000
        19.250
  -3601891.466 6  -2805712.884 6  22708586.796    22708593.249          18.000
        16.750
   1717391.787 6   1338231.509 6  21957682.343    21957688.890          18.250
        20.250
  11930120.857 6   9294264.808 6  23023626.374    23023633.452          16.000
        14.250
    -88215.138 7    -68735.803 6  21495222.640    21495228.276          20.500
        20.500
 99  3  3  1 18 30.0030000  0  6G17G 5G 6G10G24G30
  -1588377.415 4  -1229785.858 5  24956279.765    24956289.394           6.750
         8.250
   9777166.422 6   7617541.104 6  22175503.327    22175509.761          19.000
        19.250
  -3614336.860 6  -2815410.576 6  22706218.601    22706225.104          18.000
        16.750
   1742298.137 6   1357639.060 6  21962421.890    21962428.499          18.250
        20.250
  11982669.259 6   9335211.611 6  23033625.944    23033632.976          15.750
        14.250
    -71558.829 7    -55756.860 6  21498392.163    21498397.683          20.500
        20.500
 99  3  3  1 18 45.0030000  0  6G17G 5G 6G10G24G30
  -1611057.624 4  -1247458.667 5  24951963.741    24951973.421           6.750
         8.250
   9830988.989 6   7659480.768 6  22185745.304    22185751.733          19.250
        19.250
  -3626760.026 6  -2825090.943 6  22703854.647    22703861.085          18.250
        17.000
   1767358.469 6   1377166.599 6  21967190.710    21967197.183          18.500
        20.250
  12035234.627 6   9376171.637 6  23043628.796    23043635.933          15.750
        14.250
    -54751.500 7    -42660.224 6  21501590.507    21501596.046          20.500
        20.500
 99  3  3  1 19  0.0030000  0  6G17G 5G 6G10G24G30
  -1633699.075 4  -1265101.269 5  24947655.249    24947664.769           6.750
         8.250
   9884911.189 6   7701498.066 6  22196006.491    22196012.878          19.000
        19.250
  -3639159.709 6  -2834753.019 6  22701494.968    22701501.476          18.250
        17.000
   1792571.203 6   1396812.892 6  21971988.554    21971995.058          18.500
        20.250
  12087814.371 6   9417142.864 6  23053634.413    23053641.495          16.000
        14.250
    -37791.951 7    -29444.985 6  21504817.772    21504823.343          20.500
        20.500
 99  3  3  1 19 15.0030000  0  6G17G 5G 6G10G24G30
  -1656306.150 4  -1282717.076 5  24943353.163    24943362.659           6.750
         8.250
   9938927.721 6   7743588.865 6  22206285.483    22206291.843          19.000
        19.000
  -3651536.934 6  -2844397.586 6  22699139.733    22699146.163          18.250
        17.000
   1817933.480 6   1416575.706 6  21976814.726    21976821.269          18.500
        20.000
  12140405.313 6   9458122.817 6  23063642.171    23063649.202          15.750
        14.250
    -20681.966 7    -16112.525 6  21508073.710    21508079.214          20.500
        20.500
 99  3  3  1 19 30.0030000  0  6G17G 5G 6G10G24G30
  -1678876.784 4  -1300304.497 5  24939058.038    24939067.620           6.750
         8.500
   9993039.726 6   7785754.057 6  22216582.679    22216588.991          19.000
        19.000
  -3663888.413 6  -2854022.095 6  22696789.265    22696795.687          18.250
        17.000
   1843447.007 6   1436456.387 6  21981669.851    21981676.335          18.750
        20.000
  12193010.618 6   9499113.961 6  23073652.413    23073659.636          15.750
        14.250
     -3422.477 7     -2663.564 6  21511358.093    21511363.604          20.500
        20.500
 99  3  3  1 19 45.0030000  0  6G17G 5G 6G10G24G30
  -1701406.777 4  -1317860.239 5  24934771.030    24934780.167           6.750
         8.250
  10047245.065 6   7827991.989 6  22226897.593    22226903.944          18.750
        19.000
  -3676208.644 6  -2863622.258 6  22694444.757    22694451.116          18.500
        17.000
   1869111.643 6   1456454.807 6  21986553.647    21986560.112          18.750
        20.000
  12245632.407 6   9540117.955 6  23083665.991    23083673.218          15.500
        14.250
     13986.612 7     10901.962 6  21514670.921    21514676.433          20.500
        20.500
 99  3  3  1 20  0.0030000  0  6G17G 5G 6G10G24G30
  -1723890.830 4  -1335380.199 5  24930492.179    24930501.628           6.500
         8.500
  10101544.802 6   7870303.464 6  22237230.476    22237236.913          18.750
        19.000
  -3688492.657 6  -2873194.198 6  22692107.069    22692113.448          18.500
        17.000
   1894929.894 6   1476572.934 6  21991466.851    21991473.296          18.750
        20.000
  12298271.735 6   9581135.612 6  23093683.093    23093690.229          15.750
        14.250
     31547.663 7     24585.912 6  21518012.671    21518018.175          20.500
        20.500
 99  3  3  1 20 15.0030000  0  6G17G 5G 6G10G24G30
  -1746331.111 4  -1352866.034 5  24926221.960    24926231.362           6.500
         8.500
  10155936.369 6   7912686.503 6  22247580.765    22247587.296          18.500
        19.000
  -3700741.316 6  -2882738.583 6  22689776.265    22689782.694          18.500
        17.000
   1920898.926 6   1496808.551 6  21996408.522    21996414.937          18.750
        20.000
  12350925.572 6   9622164.572 6  23103702.819    23103710.015          15.500
        14.250
     49257.604 7     38385.875 6  21521382.718    21521388.261          20.500
        20.500
 99  3  3  1 20 30.0030000  0  6G17G 5G 6G10G24G30
  -1768726.650 4  -1370317.027 5  24921960.015    24921969.378           6.500
         8.750
  10210422.070 6   7955142.885 6  22257949.069    22257955.562          18.750
        19.000
  -3712954.150 6  -2892255.058 6  22687452.335    22687458.698          18.500
        17.250
   1947017.058 6   1517160.355 6  22001378.663    22001385.058          18.750
        20.000
  12403600.392 6   9663209.885 6  23113726.319    23113733.616          15.250
        14.250
     67117.684 7     52302.827 6  21524781.397    21524786.940          20.500
        20.500
 99  3  3  1 20 45.0030000  0  6G17G 5G 6G10G24G30
  -1791077.355 4  -1387733.084 5  24917706.702    24917716.292           6.500
         8.750
  10265003.573 6   7997673.926 6  22268335.647    22268342.034          18.500
        19.250
  -3725133.842 6  -2901745.709 6  22685134.522    22685140.983          18.750
        17.250
   1973284.245 6   1537628.302 6  22006377.046    22006383.433          19.000
        20.000
  12456298.811 6   9704273.591 6  23123754.421    23123761.710          15.250
        14.250
     85127.656 7     66336.583 6  21528208.608    21528214.128          20.500
        20.750
 99  3  3  1 21  0.0030000  0  6G17G 5G 6G10G24G30
  -1813383.881 4  -1405114.697 5  24913461.882    24913471.468           6.500
         8.500
  10319680.651 6   8040279.436 6  22278740.390    22278746.913          18.500
        19.000
  -3737280.984 6  -2911210.997 6  22682823.108    22682829.409          18.750
        17.250
   1999699.802 6   1558211.860 6  22011403.765    22011410.190          19.000
        20.000
  12509020.743 6   9745355.599 6  23133787.163    23133794.405          15.000
        14.000
    103286.013 7     80485.959 6  21531664.007    21531669.550          20.500
        20.500
 99  3  3  1 21 15.0030000  0  6G17G 5G 6G10G24G30
  -1835646.085 4  -1422461.786 5  24909225.382    24909234.858           6.500
         8.250
  10374455.786 6   8082961.357 6  22289163.757    22289170.261          18.500
        19.250
  -3749397.936 6  -2920652.755 6  22680517.233    22680523.644          18.750
        17.500
   2026264.853 6   1578911.912 6  22016458.999    22016465.351          18.750
        20.000
  12561768.546 6   9786457.795 6  23143824.601    23143832.062          15.000
        14.250
    121591.052 7     94749.634 6  21535147.304    21535152.851          20.500
        20.750
 99  3  3  1 21 30.0030000  0  6G17G 5G 6G10G24G30
  -1857859.102 4  -1439770.551 5  24904998.351    24905007.733           6.500
         8.250
  10429332.446 6   8125722.386 6  22299606.437    22299612.909          18.500
        19.250
  -3761483.716 6  -2930070.237 6  22678217.265    22678223.675          18.750
        17.500
   2052981.764 6   1599730.297 6  22021543.093    22021549.483          19.250
        19.750
  12614544.925 6   9827582.241 6  23153867.843    23153875.214          15.000
        14.000
    140045.623 7    109129.825 6  21538659.163    21538664.616          20.750
        20.500
 99  3  3  1 21 45.0030000  0  6G17G 5G 6G10G24G30
  -1880018.143 4  -1457037.250 5  24900781.562    24900790.858           6.250
         8.250
  10484313.458 6   8168564.729 6  22310068.976    22310075.401          18.500
        19.250
  -3773540.617 6  -2939465.201 6  22675922.983    22675929.452          18.750
        17.500
   2079849.917 6   1620666.532 6  22026655.882    22026662.269          19.250
        20.000
  12667351.682 6   9868730.361 6  23163916.608    23163923.972          15.000
        14.000
    158650.742 7    123627.326 6  21542199.585    21542205.026          20.750
        20.500
 99  3  3  1 22  0.0030000  0  6G17G 5G 6G10G24G30
  -1902125.668 4  -1474263.820 5  24896574.312    24896583.854           6.250
         8.250
  10539398.894 6   8211488.446 6  22320551.343    22320557.772          18.500
        19.000
  -3785572.301 6  -2948840.514 6  22673633.421    22673639.901          18.750
        17.500
   2106866.287 6   1641718.257 6  22031796.897    22031803.331          19.250
        19.750
  12720185.006 6   9909899.182 6  23173970.546    23173977.804          15.000
        14.000
    177405.854 7    138241.708 6  21545768.483    21545774.030          20.750
        20.750
 99  3  3  1 22 15.0030000  0  6G17G 5G 6G10G24G30
  -1924181.038 4  -1491449.737 5  24892377.499    24892386.987           6.250
         8.000
  10594597.128 6   8254500.049 6  22331055.171    22331061.667          18.250
        19.250
  -3797579.490 6  -2958196.745 6  22671348.530    22671354.960          18.500
        17.500
   2134032.471 6   1662886.726 6  22036966.499    22036972.909          19.250
        19.750
  12773045.217 6   9951088.951 6  23184029.351    23184036.769          15.000
        14.000
    196312.001 7    152973.774 6  21549366.226    21549371.655          20.500
        20.750
 99  3  3  1 22 30.0030000  0  6G17G 5G 6G10G24G30
  -1946192.187 3  -1508601.226 5  24888188.694    24888198.022           6.000
         7.750
  10649903.376 6   8297595.830 6  22341579.663    22341586.179          18.250
        19.250
  -3809567.351 6  -2967537.921 6  22669067.171    22669073.601          18.500
        17.500
   2161340.423 6   1684165.662 6  22042163.046    22042169.440          19.250
        19.750
  12825927.542 6   9992295.957 6  23194092.687    23194099.960          15.000
        14.000
    215366.115 7    167821.142 6  21552992.132    21552997.554          20.500
        20.750
 99  3  3  1 22 45.0030000  0  6G17G 5G 6G10G24G30
  -1968158.216 4  -1525717.535 5  24884008.851    24884018.155           6.250
         8.000
  10705317.233 6   8340775.451 6  22352124.554    22352131.077          18.250
        19.000
  -3821535.568 6  -2976863.776 6  22666789.640    22666796.136          18.500
        17.500
   2188789.379 6   1705554.461 6  22047386.358    22047392.757          19.250
        19.750
  12878829.988 6  10033518.639 6  23204159.718    23204167.015          15.000
        14.000
    234567.892 7    182783.571 6  21556645.999    21556651.511          20.500
        20.750
 99  3  3  1 23  0.0030000  0  6G17G 5G 6G10G24G30
  -1990080.278 4  -1542799.580 5  24879837.312    24879846.245           6.250
         7.750
  10760836.580 6   8384037.279 6  22362689.577    22362696.046          18.250
        19.000
  -3833482.206 6  -2986172.823 6  22664516.288    22664522.757          18.500
        17.750
   2216381.910 6   1727055.155 6  22052637.054    22052643.417          19.250
        19.750
  12931747.915 6  10074753.387 6  23214229.538    23214237.062          15.000
        14.000
    253916.712 7    197860.583 6  21560327.944    21560333.401          20.250
        21.000
 99  3  3  1 23 15.0030000  0  6G17G 5G 6G10G24G30
  -2011959.993 4  -1559848.639 5  24875673.624    24875682.503           6.250
         7.500
  10816457.599 6   8427378.330 6  22373273.851    22373280.335          18.250
        19.000
  -3845409.191 6  -2995466.552 6  22662246.593    22662253.073          18.500
        17.750
   2244114.192 6   1748664.735 6  22057914.265    22057920.616          19.250
        19.750
  12984677.293 6  10115997.049 6  23224301.733    23224309.030          15.000
        14.000
    273408.822 7    213049.242 6  21564037.022    21564042.636          20.250
        21.000
 99  3  3  1 23 30.0030000  0  6G17G 5G 6G10G24G30
  -2033796.511 4  -1576864.038 5  24871518.218    24871527.081           6.250
         7.500
  10872179.922 6   8470798.315 6  22383877.655    22383884.108          18.250
        18.750
  -3857315.656 6  -3004744.296 6  22659980.812    22659987.304          18.500
        17.750
   2271989.956 6   1770386.123 6  22063218.882    22063225.261          19.250
        19.750
  13037619.102 6  10157250.408 6  23234376.233    23234383.558          15.000
        14.000
    293044.808 7    228350.021 6  21567773.694    21567779.280          20.250
        21.000
 99  3  3  1 23 45.0030000  0  6G17G 5G 6G10G24G30
  -2055590.350 4  -1593846.179 5  24867370.866    24867379.784           6.500
         7.500
  10928003.694 6   8514297.352 6  22394500.405    22394506.858          18.250
        18.750
  -3869197.628 6  -3014002.959 6  22657719.858    22657726.312          18.500
        17.750
   2300008.833 6   1792219.022 6  22068550.655    22068557.062          19.000
        19.750
  13090575.661 6  10198515.255 6  23244453.585    23244460.847          15.000
        14.000
    312826.310 7    243764.184 6  21571537.937    21571543.542          20.250
        21.000
 99  3  3  1 24  0.0030000  0  6G17G 5G 6G10G24G30
  -2077342.712 4  -1610796.006 5  24863231.382    24863240.241           6.500
         7.500
  10983928.572 6   8557875.177 6  22405142.632    22405149.093          18.250
        18.750
  -3881053.455 6  -3023241.242 6  22655463.749    22655470.280          18.500
        18.000
   2328171.560 6   1814164.011 6  22073909.694    22073916.292          18.750
        19.750
  13143548.119 6  10239792.485 6  23254533.913    23254541.183          15.000
        13.750
    332754.263 7    259292.466 6  21575330.069    21575335.749          20.000
        21.000
 99  3  3  1 24 15.0030000  0  6G17G 5G 6G10G24G30
  -2099055.582 4  -1627715.058 5  24859099.663    24859108.491           7.000
         7.500
  11039953.284 6   8601530.794 6  22415803.749    22415810.257          18.250
        18.750
  -3892881.228 6  -3032457.664 6  22653213.069    22653219.417          18.750
        18.000
   2356479.145 6   1836221.878 6  22079296.515    22079302.991          18.750
        19.750
  13196537.381 6  10281082.824 6  23264617.335    23264624.640          15.000
        13.750
    352829.996 7    274935.898 6  21579150.429    21579156.022          20.000
        21.000
 99  3  3  1 24 30.0030000  0  6G17G 5G 6G10G24G30
  -2120729.310 4  -1644603.607 5  24854975.304    24854984.128           7.000
         7.500
  11096072.035 6   8645259.684 6  22426482.749    22426489.144          18.000
        18.750
  -3904681.657 6  -3041652.786 6  22650967.483    22650973.913          18.750
        18.000
   2384929.354 6   1858390.888 6  22084710.390    22084716.897          18.750
        19.750
  13249546.079 6  10322388.299 6  23274704.483    23274711.800          14.750
        13.750
    373053.270 7    290694.296 6  21582998.780    21583004.417          20.000
        20.750
 99  3  3  1 24 45.0030000  0  6G17G 5G 6G10G24G30
  -2142360.316 4  -1661458.867 5  24850859.108    24850867.800           7.250
         7.500
  11152283.794 6   8689061.047 6  22437179.515    22437185.956          18.000
        18.750
  -3916451.359 6  -3050823.960 6  22648727.765    22648734.210          19.000
        18.250
   2413525.638 6   1880673.718 6  22090151.991    22090158.538          18.750
        19.750
  13302579.523 6  10363713.057 6  23284796.351    23284803.737          14.750
        13.500
    393426.154 7    306569.272 6  21586875.655    21586881.218          20.000
        21.000
 99  3  3  1 25  0.0030000  0  6G17G 5G 6G10G24G30
  -2163950.826 4  -1678282.552 5  24846750.507    24846759.417           7.250
         7.500
  11208586.927 6   8732933.617 6  22447893.687    22447900.116          18.000
        18.750
  -3928193.348 6  -3059973.538 6  22646493.397    22646499.757          19.250
        18.250
   2442269.065 6   1903071.201 6  22095621.780    22095628.249          18.500
        19.750
  13355636.018 6  10405055.771 6  23294892.702    23294899.937          14.500
        13.500
    413943.703 7    322556.983 6  21590779.960    21590785.491          20.000
        21.000
 99  3  3  1 25 15.0030000  0  6G17G 5G 6G10G24G30
  -2185503.289 4  -1695076.623 5  24842649.132    24842657.866           7.250
         7.500
  11264979.365 6   8776875.768 6  22458624.780    22458631.226          18.000
        18.500
  -3939909.929 6  -3069103.321 6  22644263.851    22644270.194          19.250
        18.250
   2471160.157 6   1925583.748 6  22101119.374    22101125.960          18.500
        19.750
  13408718.192 6  10446418.504 6  23304993.913    23305001.155          14.500
        13.250
    434606.075 7    338657.533 6  21594712.015    21594717.608          20.000
        21.000
 99  3  3  1 25 30.0030000  0  6G17G 5G 6G10G24G30
  -2207014.939 5  -1711838.884 5  24838555.491    24838564.218           7.500
         7.500
  11321461.376 6   8820887.718 6  22469372.827    22469379.304          18.000
        18.500
  -3951600.037 6  -3078212.476 6  22642039.046    22642045.409          19.250
        18.250
   2500199.343 6   1948211.692 6  22106645.405    22106651.882          18.500
        19.750
  13461829.334 6  10487803.812 6  23315100.632    23315107.854          14.500
        13.250
    455414.273 7    354871.723 6  21598671.640    21598677.280          20.000
        21.000
 99  3  3  1 25 45.0030000  0  6G17G 5G 6G10G24G30
  -2228488.244 5  -1728571.253 5  24834469.171    24834478.097           7.500
         7.500
  11378030.885 6   8864967.850 6  22480137.858    22480144.245          18.000
        18.500
  -3963262.763 6  -3087300.289 6  22639819.835    22639826.132          19.500
        18.500
   2529383.279 6   1970952.434 6  22112198.905    22112205.370          18.500
        19.750
  13514965.158 6  10529208.338 6  23325212.085    23325219.479          14.250
        13.250
    476369.144 7    371200.192 6  21602659.257    21602664.851          20.000
        21.000
 99  3  3  1 26  0.0030000  0  6G17G 5G 6G10G24G30
  -2249919.489 5  -1745270.872 5  24830390.937    24830399.448           7.750
         7.500
  11434688.281 6   8909116.462 6  22490919.374    22490925.702          18.000
        18.500
  -3974895.515 6  -3096364.748 6  22637606.140    22637612.409          19.500
        18.500
   2558711.613 6   1993805.688 6  22117780.015    22117786.534          18.500
        19.750
  13568124.109 6  10570630.894 6  23335327.788    23335335.288          14.250
        13.250
    497473.226 7    387644.934 6  21606675.116    21606680.690          20.000
        20.750
 99  3  3  1 26 15.0030000  0  6G17G 5G 6G10G24G30
  -2271304.236 5  -1761934.227 5  24826321.788    24826330.218           7.750
         7.750
  11491436.608 6   8953335.936 6  22501718.304    22501724.694          18.000
        18.500
  -3986495.247 6  -3105403.472 6  22635398.976    22635405.167          19.750
        18.500
   2588188.439 6   2016774.653 6  22123389.202    22123395.772          18.500
        19.750
  13621307.035 6  10612072.133 6  23345448.187    23345455.659          14.250
        13.250
    518728.631 6    404207.594 6  21610719.991    21610725.534          19.750
        20.750
 99  3  3  1 26 30.0030000  0  6G17G 5G 6G10G24G30
  -2292645.543 5  -1778563.741 5  24822260.226    24822268.995           7.750
         7.750
  11548272.168 6   8997623.377 6  22512533.710    22512540.062          18.000
        18.500
  -3998062.881 6  -3114417.200 6  22633197.616    22633203.901          19.750
        18.500
   2617812.757 6   2039858.549 6  22129026.577    22129033.026          18.500
        19.750
  13674508.215 6  10653527.595 6  23355572.093    23355579.530          14.250
        13.000
    540132.440 6    420885.895 6  21614792.890    21614798.437          19.750
        20.750
 99  3  3  1 26 45.0030000  0  6G17G 5G 6G10G24G30
  -2313944.432 5  -1795160.193 5  24818207.280    24818216.062           7.750
         7.500
  11605194.172 6   9041978.180 6  22523365.538    22523372.019          18.000
        18.250
  -4009597.853 6  -3123405.465 6  22631002.554    22631008.815          19.750
        18.500
   2647585.464 6   2063058.069 6  22134691.999    22134698.636          18.500
        19.750
  13727723.278 6  10694993.871 6  23365698.749    23365706.206          14.250
        13.250
    561681.694 6    437677.525 6  21618893.507    21618899.163          19.750
        20.750
 99  3  3  1 27  0.0030000  0  6G17G 5G 6G10G24G30
  -2335197.498 5  -1811720.955 5  24814162.804    24814171.468           7.750
         7.500
  11662208.983 6   9086405.290 6  22534215.187    22534221.608          18.250
        18.250
  -4021096.771 7  -3132365.639 6  22628814.452    22628820.769          20.000
        18.750
   2677511.889 6   2086377.366 6  22140386.952    22140393.679          18.500
        19.750
  13780951.718 6  10736470.576 6  23375827.757    23375835.003          14.500
        13.250
    583378.783 7    454584.349 6  21623022.483    21623027.991          20.000
        20.500
 99  3  3  1 27 15.0030000  0  6G17G 5G 6G10G24G30
  -2356404.206 5  -1828245.574 5  24810127.421    24810135.589           7.750
         7.750
  11719316.915 6   9130904.981 6  22545082.530    22545088.866          18.250
        18.250
  -4032559.397 7  -3141297.529 6  22626633.147    22626639.440          20.000
        18.750
   2707592.128 6   2109816.523 6  22146110.921    22146117.546          18.500
        19.750
  13834191.159 6  10777955.852 6  23385958.929    23385966.077          14.500
        13.000
    605226.448 7    471608.512 6  21627179.937    21627185.425          20.000
        20.500
 99  3  3  1 27 30.0030000  0  6G17G 5G 6G10G24G30
  -2377562.039 5  -1844732.132 5  24806100.968    24806109.722           7.750
         7.750
  11776517.298 6   9175476.705 6  22555967.233    22555973.702          18.250
        18.500
  -4043986.092 6  -3150201.428 6  22624458.710    22624465.065          19.750
        18.750
   2737823.063 6   2133373.105 6  22151863.671    22151870.331          18.500
        19.750
  13887439.624 6  10819448.157 6  23396091.858    23396099.116          14.500
        13.000
    627227.299 7    488752.042 6  21631366.272    21631371.886          20.000
        21.000
 99  3  3  1 27 45.0030000  0  6G17G 5G 6G10G24G30
  -2398672.414 5  -1861181.704 5  24802083.733    24802092.261           7.750
         8.000
  11833808.115 6   9220118.887 6  22566869.272    22566875.804          18.250
        18.500
  -4055377.341 7  -3159077.700 6  22622290.960    22622297.382          20.000
        19.000
   2768201.612 6   2157044.707 6  22157644.601    22157651.159          18.500
        19.750
  13940691.846 6  10860943.387 6  23406225.530    23406232.577          14.500
        12.750
    649378.333 7    506012.584 6  21635581.569    21635587.187          20.000
        21.000
 99  3  3  1 28  0.0030000  0  6G17G 5G 6G10G24G30
  -2419734.935 5  -1877593.962 5  24798075.562    24798084.358           7.750
         8.000
  11891192.097 6   9264833.673 6  22577789.194    22577795.659          18.250
        18.500
  -4066732.657 7  -3167925.977 6  22620130.030    22620136.413          20.000
        18.750
   2798729.399 6   2180832.598 6  22163453.827    22163460.351          18.500
        19.750
  13993948.997 6  10902442.467 6  23416359.741    23416366.800          14.250
        12.750
    671681.634 7    523391.786 6  21639825.710    21639831.261          20.000
        21.000
 99  3  3  1 28 15.0030000  0  6G17G 5G 6G10G24G30
  -2440749.107 5  -1893968.548 5  24794076.632    24794085.390           7.750
         8.000
  11948669.100 6   9309620.941 6  22588726.741    22588733.198          18.250
        18.500
  -4078054.502 7  -3176748.170 6  22617975.608    22617982.011          20.250
        19.000
   2829407.999 6   2204738.011 6  22169291.788    22169298.253          18.500
        19.750
  14047214.640 6  10943948.159 6  23426495.913    23426503.214          14.250
        12.750
    694131.952 7    540885.549 6  21644097.937    21644103.507          20.000
        21.000
 99  3  3  1 28 30.0030000  0  6G17G 5G 6G10G24G30
  -2461715.098 5  -1910305.607 5  24790086.663    24790095.550           7.750
         8.000
  12006241.721 6   9354482.721 6  22599682.405    22599688.917          18.250
        18.500
  -4089341.690 7  -3185543.355 6  22615827.601    22615834.026          20.250
        18.750
   2860239.372 6   2228762.463 6  22175158.819    22175165.362          18.500
        19.750
  14100491.741 6  10985462.783 6  23436634.413    23436641.597          14.250
        12.750
    716731.362 7    558495.487 6  21648398.483    21648404.058          20.000
        21.000
 99  3  3  1 28 45.0030000  0  6G17G 5G 6G10G24G30
  -2482636.350 5  -1926607.783 5  24786105.522    24786114.405           7.750
         8.250
  12063903.804 6   9399414.205 6  22610655.179    22610661.671          18.250
        18.500
  -4100600.296 7  -3194316.281 6  22613685.265    22613691.565          20.250
        19.000
   2891219.070 6   2252902.493 6  22181054.022    22181060.503          18.500
        19.750
  14153777.922 6  11026984.484 6  23446774.171    23446781.491          14.250
        12.750
    739474.478 7    576217.397 6  21652726.390    21652731.878          20.000
        21.000
 99  3  3  1 29  0.0030000  0  6G17G 5G 6G10G24G30
  -2503511.670 5  -1942874.189 5  24782133.077    24782141.839           7.750
         8.250
  12121657.662 6   9444417.203 6  22621645.413    22621651.788          18.250
        18.250
  -4111832.973 7  -3203068.993 6  22611547.741    22611554.104          20.250
        18.750
   2922345.235 6   2277156.652 6  22186977.046    22186983.487          18.500
        19.500
  14207076.475 6  11068515.806 6  23456916.499    23456923.722          13.750
        12.500
    762362.583 7    594052.288 6  21657081.937    21657087.452          20.000
        21.000
 99  3  3  1 29 15.0030000  0  6G17G 5G 6G10G24G30
  -2524338.653 5  -1959102.923 5  24778170.022    24778178.589           7.750
         8.250
  12179503.801 6   9489492.114 6  22632653.163    22632659.546          18.250
        18.250
  -4123039.377 7  -3211801.230 6  22609415.171    22609421.437          20.250
        18.750
   2953617.244 6   2301524.461 6  22192927.913    22192934.390          18.500
        19.500
  14260390.015 6  11110058.819 6  23467061.718    23467068.940          14.000
        12.500
    785399.800 7    612003.373 6  21661465.749    21661471.269          20.000
        21.000
 99  3  3  1 29 30.0030000  0  6G17G 5G 6G10G24G30
  -2545128.068 5  -1975302.369 5  24774213.507    24774222.319           7.750
         8.750
  12237427.604 6   9534627.540 6  22643675.632    22643682.007          18.250
        18.250
  -4134229.553 7  -3220520.823 6  22607285.772    22607292.042          20.000
        18.750
   2985022.908 6   2325996.410 6  22198904.241    22198910.753          18.500
        19.750
  14313706.473 6  11151604.112 6  23477207.507    23477214.651          14.000
        12.250
    808573.970 7    630061.174 6  21665875.694    21665881.198          20.000
        21.000
 99  3  3  1 29 45.0030000  0  6G17G 5G 6G10G24G30
  -2565873.741 5  -1991467.744 5  24770265.929    24770274.511           8.000
         8.750
  12295437.911 6   9579830.371 6  22654714.726    22654721.097          18.250
        18.250
  -4145390.886 7  -3229217.949 6  22605161.679    22605168.034          20.000
        18.500
   3016571.630 6   2350579.840 6  22204907.687    22204914.249          18.500
        19.500
  14367037.832 6  11193161.007 6  23487356.124    23487363.315          14.000
        12.250
    831890.336 7    648229.778 6  21670312.608    21670318.144          20.000
        21.000
 99  3  3  1 30  0.0030000  0  6G17G 5G 6G10G24G30
  -2586571.203 5  -2007595.544 5  24766327.288    24766335.644           8.250
         8.500
  12353539.740 6   9625104.513 6  22665771.140    22665777.515          18.250
        18.250
  -4156518.488 6  -3237888.784 6  22603044.280    22603050.417          19.750
        18.500
   3048269.090 6   2375279.166 6  22210939.507    22210946.116          18.500
        19.500
  14420387.439 6  11234732.128 6  23497508.187    23497515.394          13.750
        12.500
    855351.743 7    666511.399 6  21674777.241    21674782.812          20.250
        20.750
